Wetterdaten: Dienstag, 20.09.2016
Datum Zeit Temp. A. Feuchte A. Luftdruck Regen Wind Richtung Richtung Sonnenschein ET UV Solar Taupunkt Windchill Windben Empfang
20.09.2016 00:00 12,7 C 97 % 1014,5 hPa 0,0 l/m 9,3 km/h (2 Bft) W 277 0 min 0,000 mm 0,0 UV-I 0 W/m 12,2 C 10,9 C 12,9 km/h (3 Bft) 97,87 %
20.09.2016 00:02 12,7 C 97 % 1014,4 hPa 0,2 l/m 8,9 km/h (2 Bft) W 267 0 min 0,000 mm 0,0 UV-I 0 W/m 12,2 C 11,2 C 12,9 km/h (3 Bft) 97,22 %
20.09.2016 00:04 12,7 C 97 % 1014,5 hPa 0,0 l/m 9,6 km/h (2 Bft) W-SW 254 0 min 0,000 mm 0,0 UV-I 0 W/m 12,2 C 10,8 C 14,5 km/h (3 Bft) 97,87 %
20.09.2016 00:06 12,7 C 97 % 1014,5 hPa 0,0 l/m 9,3 km/h (2 Bft) W-SW 242 0 min 0,000 mm 0,0 UV-I 0 W/m 12,2 C 10,9 C 14,5 km/h (3 Bft) 97,92 %
20.09.2016 00:08 12,7 C 97 % 1014,5 hPa 0,0 l/m 8,3 km/h (2 Bft) W-SW 249 0 min 0,000 mm 0,0 UV-I 0 W/m 12,2 C 11,5 C 14,5 km/h (3 Bft) 97,87 %
20.09.2016 00:10 12,7 C 97 % 1014,5 hPa 0,0 l/m 8,6 km/h (2 Bft) W-SW 252 0 min 0,000 mm 0,0 UV-I 0 W/m 12,2 C 11,3 C 12,9 km/h (3 Bft) 100,00 %
20.09.2016 00:12 12,7 C 97 % 1014,5 hPa 0,0 l/m 10,9 km/h (2 Bft) W-SW 251 0 min 0,000 mm 0,0 UV-I 0 W/m 12,2 C 10,1 C 14,5 km/h (3 Bft) 100,00 %
20.09.2016 00:14 12,7 C 97 % 1014,5 hPa 0,0 l/m 8,3 km/h (2 Bft) W-SW 247 0 min 0,000 mm 0,0 UV-I 0 W/m 12,2 C 11,5 C 12,9 km/h (3 Bft) 100,00 %
20.09.2016 00:16 12,7 C 97 % 1014,5 hPa 0,0 l/m 9,6 km/h (2 Bft) S-SW 212 0 min 0,000 mm 0,0 UV-I 0 W/m 12,2 C 10,8 C 14,5 km/h (3 Bft) 100,00 %
20.09.2016 00:18 12,6 C 97 % 1014,5 hPa 0,0 l/m 10,5 km/h (2 Bft) W-SW 258 0 min 0,000 mm 0,0 UV-I 0 W/m 12,1 C 10,2 C 14,5 km/h (3 Bft) 100,00 %
20.09.2016 00:20 12,6 C 97 % 1014,5 hPa 0,2 l/m 11,5 km/h (2 Bft) W 275 0 min 0,000 mm 0,0 UV-I 0 W/m 12,1 C 9,7 C 16,1 km/h (3 Bft) 100,00 %
20.09.2016 00:22 12,6 C 97 % 1014,5 hPa 0,0 l/m 11,7 km/h (2 Bft) W 277 0 min 0,000 mm 0,0 UV-I 0 W/m 12,1 C 9,6 C 17,7 km/h (3 Bft) 95,83 %
20.09.2016 00:24 12,6 C 97 % 1014,5 hPa 0,0 l/m 10,0 km/h (2 Bft) W 266 0 min 0,000 mm 0,0 UV-I 0 W/m 12,1 C 10,5 C 14,5 km/h (3 Bft) 100,00 %
20.09.2016 00:26 12,6 C 97 % 1014,5 hPa 0,0 l/m 11,4 km/h (2 Bft) W 261 0 min 0,000 mm 0,0 UV-I 0 W/m 12,1 C 9,8 C 14,5 km/h (3 Bft) 100,00 %
20.09.2016 00:28 12,6 C 97 % 1014,5 hPa 0,0 l/m 8,3 km/h (2 Bft) W 272 0 min 0,000 mm 0,0 UV-I 0 W/m 12,1 C 11,4 C 12,9 km/h (3 Bft) 100,00 %
20.09.2016 00:30 12,6 C 97 % 1014,5 hPa 0,2 l/m 8,6 km/h (2 Bft) SW 231 0 min 0,000 mm 0,0 UV-I 0 W/m 12,1 C 11,2 C 12,9 km/h (3 Bft) 97,87 %
20.09.2016 00:32 12,6 C 97 % 1014,5 hPa 0,0 l/m 7,9 km/h (2 Bft) W-SW 238 0 min 0,000 mm 0,0 UV-I 0 W/m 12,1 C 11,6 C 12,9 km/h (3 Bft) 100,00 %
20.09.2016 00:34 12,6 C 97 % 1014,5 hPa 0,0 l/m 8,6 km/h (2 Bft) W-SW 248 0 min 0,000 mm 0,0 UV-I 0 W/m 12,1 C 11,2 C 16,1 km/h (3 Bft) 97,92 %
20.09.2016 00:36 12,6 C 97 % 1014,5 hPa 0,0 l/m 9,7 km/h (2 Bft) W-SW 252 0 min 0,000 mm 0,0 UV-I 0 W/m 12,1 C 10,6 C 16,1 km/h (3 Bft) 97,87 %
20.09.2016 00:38 12,6 C 97 % 1014,5 hPa 0,0 l/m 8,1 km/h (2 Bft) W-SW 256 0 min 0,000 mm 0,0 UV-I 0 W/m 12,1 C 11,5 C 14,5 km/h (3 Bft) 100,00 %
20.09.2016 00:40 12,6 C 97 % 1014,6 hPa 0,0 l/m 11,3 km/h (2 Bft) W 259 0 min 0,000 mm 0,0 UV-I 0 W/m 12,1 C 9,8 C 20,9 km/h (4 Bft) 100,00 %
20.09.2016 00:42 12,6 C 97 % 1014,5 hPa 0,0 l/m 12,7 km/h (3 Bft) W-SW 251 0 min 0,000 mm 0,0 UV-I 0 W/m 12,1 C 9,2 C 17,7 km/h (3 Bft) 100,00 %
20.09.2016 00:44 12,6 C 97 % 1014,5 hPa 0,0 l/m 9,7 km/h (2 Bft) W-SW 255 0 min 0,000 mm 0,0 UV-I 0 W/m 12,1 C 10,6 C 14,5 km/h (3 Bft) 100,00 %
20.09.2016 00:46 12,6 C 97 % 1014,5 hPa 0,2 l/m 10,0 km/h (2 Bft) W 281 0 min 0,000 mm 0,0 UV-I 0 W/m 12,1 C 10,5 C 16,1 km/h (3 Bft) 100,00 %
20.09.2016 00:48 12,6 C 97 % 1014,5 hPa 0,0 l/m 10,3 km/h (2 Bft) W 262 0 min 0,000 mm 0,0 UV-I 0 W/m 12,1 C 10,3 C 16,1 km/h (3 Bft) 100,00 %
20.09.2016 00:50 12,6 C 97 % 1014,6 hPa 0,0 l/m 8,6 km/h (2 Bft) W-SW 249 0 min 0,000 mm 0,0 UV-I 0 W/m 12,1 C 11,2 C 14,5 km/h (3 Bft) 100,00 %
20.09.2016 00:52 12,5 C 97 % 1014,5 hPa 0,0 l/m 8,4 km/h (2 Bft) W-NW 288 0 min 0,000 mm 0,0 UV-I 0 W/m 12,0 C 11,2 C 14,5 km/h (3 Bft) 100,00 %
20.09.2016 00:54 12,5 C 97 % 1014,5 hPa 0,0 l/m 7,2 km/h (2 Bft) W 266 0 min 0,000 mm 0,0 UV-I 0 W/m 12,0 C 12,0 C 11,3 km/h (2 Bft) 100,00 %
20.09.2016 00:56 12,5 C 97 % 1014,5 hPa 0,0 l/m 9,5 km/h (2 Bft) W-SW 237 0 min 0,000 mm 0,0 UV-I 0 W/m 12,0 C 10,6 C 14,5 km/h (3 Bft) 100,00 %
20.09.2016 00:58 12,5 C 97 % 1014,5 hPa 0,0 l/m 7,7 km/h (2 Bft) S 182 0 min 0,000 mm 0,0 UV-I 0 W/m 12,0 C 11,7 C 11,3 km/h (2 Bft) 100,00 %
20.09.2016 01:00 12,5 C 97 % 1014,5 hPa 0,0 l/m 10,4 km/h (2 Bft) W 268 0 min 0,000 mm 0,0 UV-I 0 W/m 12,0 C 10,2 C 14,5 km/h (3 Bft) 100,00 %
20.09.2016 01:02 12,6 C 97 % 1014,5 hPa 0,2 l/m 7,3 km/h (2 Bft) W-SW 252 0 min 0,000 mm 0,0 UV-I 0 W/m 12,1 C 12,0 C 11,3 km/h (2 Bft) 100,00 %
20.09.2016 01:04 12,6 C 97 % 1014,6 hPa 0,0 l/m 10,2 km/h (2 Bft) W-SW 242 0 min 0,000 mm 0,0 UV-I 0 W/m 12,1 C 10,4 C 16,1 km/h (3 Bft) 97,87 %
20.09.2016 01:06 12,6 C 97 % 1014,6 hPa 0,0 l/m 6,4 km/h (2 Bft) W-SW 254 0 min 0,000 mm 0,0 UV-I 0 W/m 12,1 C 12,6 C 12,9 km/h (3 Bft) 100,00 %
20.09.2016 01:08 12,5 C 97 % 1014,6 hPa 0,0 l/m 11,9 km/h (2 Bft) W-SW 250 0 min 0,000 mm 0,0 UV-I 0 W/m 12,0 C 9,4 C 16,1 km/h (3 Bft) 100,00 %
20.09.2016 01:10 12,5 C 97 % 1014,6 hPa 0,0 l/m 10,2 km/h (2 Bft) W 271 0 min 0,000 mm 0,0 UV-I 0 W/m 12,0 C 10,3 C 16,1 km/h (3 Bft) 95,74 %
20.09.2016 01:12 12,5 C 97 % 1014,6 hPa 0,0 l/m 8,1 km/h (2 Bft) W-SW 248 0 min 0,000 mm 0,0 UV-I 0 W/m 12,0 C 11,4 C 14,5 km/h (3 Bft) 100,00 %
20.09.2016 01:14 12,5 C 97 % 1014,6 hPa 0,0 l/m 8,5 km/h (2 Bft) W 263 0 min 0,000 mm 0,0 UV-I 0 W/m 12,0 C 11,2 C 16,1 km/h (3 Bft) 97,87 %
20.09.2016 01:16 12,5 C 97 % 1014,6 hPa 0,0 l/m 9,7 km/h (2 Bft) W 261 0 min 0,000 mm 0,0 UV-I 0 W/m 12,0 C 10,5 C 12,9 km/h (3 Bft) 100,00 %
20.09.2016 01:18 12,5 C 97 % 1014,6 hPa 0,0 l/m 9,4 km/h (2 Bft) W-SW 250 0 min 0,000 mm 0,0 UV-I 0 W/m 12,0 C 10,7 C 16,1 km/h (3 Bft) 100,00 %
20.09.2016 01:20 12,4 C 97 % 1014,6 hPa 0,0 l/m 7,1 km/h (2 Bft) SW 236 0 min 0,000 mm 0,0 UV-I 0 W/m 11,9 C 11,9 C 12,9 km/h (3 Bft) 97,87 %
20.09.2016 01:22 12,4 C 97 % 1014,6 hPa 0,0 l/m 8,6 km/h (2 Bft) W 265 0 min 0,000 mm 0,0 UV-I 0 W/m 11,9 C 11,0 C 14,5 km/h (3 Bft) 98,00 %
20.09.2016 01:24 12,4 C 97 % 1014,6 hPa 0,0 l/m 6,7 km/h (2 Bft) W-SW 254 0 min 0,000 mm 0,0 UV-I 0 W/m 11,9 C 12,2 C 11,3 km/h (2 Bft) 100,00 %
20.09.2016 01:26 12,4 C 97 % 1014,6 hPa 0,0 l/m 7,9 km/h (2 Bft) W-SW 246 0 min 0,000 mm 0,0 UV-I 0 W/m 11,9 C 11,4 C 12,9 km/h (3 Bft) 100,00 %
20.09.2016 01:28 12,4 C 97 % 1014,6 hPa 0,0 l/m 6,8 km/h (2 Bft) W 271 0 min 0,000 mm 0,0 UV-I 0 W/m 11,9 C 12,1 C 11,3 km/h (2 Bft) 100,00 %
20.09.2016 01:30 12,4 C 97 % 1014,6 hPa 0,2 l/m 7,2 km/h (2 Bft) W 261 0 min 0,000 mm 0,0 UV-I 0 W/m 11,9 C 11,9 C 9,7 km/h (2 Bft) 100,00 %
20.09.2016 01:32 12,4 C 97 % 1014,6 hPa 0,0 l/m 6,7 km/h (2 Bft) W-SW 248 0 min 0,000 mm 0,0 UV-I 0 W/m 11,9 C 12,2 C 12,9 km/h (3 Bft) 97,87 %
20.09.2016 01:34 12,4 C 97 % 1014,7 hPa 0,0 l/m 8,7 km/h (2 Bft) SW 234 0 min 0,000 mm 0,0 UV-I 0 W/m 11,9 C 11,0 C 14,5 km/h (3 Bft) 100,00 %
20.09.2016 01:36 12,4 C 97 % 1014,7 hPa 0,0 l/m 6,5 km/h (2 Bft) W 261 0 min 0,000 mm 0,0 UV-I 0 W/m 11,9 C 12,4 C 9,7 km/h (2 Bft) 97,87 %
20.09.2016 01:38 12,4 C 97 % 1014,7 hPa 0,0 l/m 8,4 km/h (2 Bft) W-NW 286 0 min 0,000 mm 0,0 UV-I 0 W/m 11,9 C 11,1 C 14,5 km/h (3 Bft) 95,74 %
20.09.2016 01:40 12,4 C 97 % 1014,7 hPa 0,0 l/m 9,1 km/h (2 Bft) W-SW 251 0 min 0,000 mm 0,0 UV-I 0 W/m 11,9 C 10,7 C 16,1 km/h (3 Bft) 95,74 %
20.09.2016 01:42 12,4 C 97 % 1014,7 hPa 0,0 l/m 8,3 km/h (2 Bft) W-SW 250 0 min 0,000 mm 0,0 UV-I 0 W/m 11,9 C 11,2 C 12,9 km/h (3 Bft) 95,74 %
20.09.2016 01:44 12,4 C 97 % 1014,7 hPa 0,2 l/m 7,0 km/h (2 Bft) W 265 0 min 0,000 mm 0,0 UV-I 0 W/m 11,9 C 12,0 C 11,3 km/h (2 Bft) 95,74 %
20.09.2016 01:46 12,3 C 97 % 1014,7 hPa 0,0 l/m 6,9 km/h (2 Bft) W 267 0 min 0,000 mm 0,0 UV-I 0 W/m 11,8 C 12,0 C 11,3 km/h (2 Bft) 97,87 %
20.09.2016 01:48 12,4 C 97 % 1014,7 hPa 0,0 l/m 5,2 km/h (1 Bft) W 274 0 min 0,000 mm 0,0 UV-I 0 W/m 11,9 C 12,4 C 9,7 km/h (2 Bft) 93,62 %
20.09.2016 01:50 12,4 C 97 % 1014,7 hPa 0,0 l/m 4,3 km/h (1 Bft) W-SW 242 0 min 0,000 mm 0,0 UV-I 0 W/m 11,9 C 12,4 C 8,0 km/h (2 Bft) 98,00 %
20.09.2016 01:52 12,4 C 97 % 1014,7 hPa 0,0 l/m 4,2 km/h (1 Bft) W 268 0 min 0,000 mm 0,0 UV-I 0 W/m 11,9 C 12,4 C 6,4 km/h (2 Bft) 97,87 %
20.09.2016 01:54 12,4 C 97 % 1014,7 hPa 0,0 l/m 6,4 km/h (2 Bft) W 271 0 min 0,000 mm 0,0 UV-I 0 W/m 11,9 C 12,4 C 11,3 km/h (2 Bft) 97,87 %
20.09.2016 01:56 12,4 C 97 % 1014,7 hPa 0,0 l/m 4,1 km/h (1 Bft) W 271 0 min 0,000 mm 0,0 UV-I 0 W/m 11,9 C 12,4 C 4,8 km/h (1 Bft) 95,74 %
20.09.2016 01:58 12,4 C 97 % 1014,7 hPa 0,0 l/m 7,5 km/h (2 Bft) W-SW 258 0 min 0,000 mm 0,0 UV-I 0 W/m 11,9 C 11,7 C 12,9 km/h (3 Bft) 97,87 %
20.09.2016 02:00 12,3 C 97 % 1014,7 hPa 0,0 l/m 6,2 km/h (2 Bft) W-SW 244 0 min 0,000 mm 0,0 UV-I 0 W/m 11,8 C 12,3 C 11,3 km/h (2 Bft) 97,87 %
20.09.2016 02:02 12,4 C 97 % 1014,7 hPa 0,2 l/m 8,6 km/h (2 Bft) W-SW 254 0 min 0,000 mm 0,0 UV-I 0 W/m 11,9 C 11,0 C 12,9 km/h (3 Bft) 98,00 %
20.09.2016 02:04 12,3 C 97 % 1014,6 hPa 0,0 l/m 5,0 km/h (1 Bft) W 274 0 min 0,000 mm 0,0 UV-I 0 W/m 11,8 C 12,3 C 8,0 km/h (2 Bft) 97,87 %
20.09.2016 02:06 12,3 C 97 % 1014,7 hPa 0,0 l/m 7,4 km/h (2 Bft) W 265 0 min 0,000 mm 0,0 UV-I 0 W/m 11,8 C 11,6 C 12,9 km/h (3 Bft) 97,87 %
20.09.2016 02:08 12,3 C 97 % 1014,7 hPa 0,0 l/m 7,6 km/h (2 Bft) W 264 0 min 0,000 mm 0,0 UV-I 0 W/m 11,8 C 11,5 C 14,5 km/h (3 Bft) 97,87 %
20.09.2016 02:10 12,3 C 97 % 1014,7 hPa 0,0 l/m 7,6 km/h (2 Bft) W-SW 242 0 min 0,000 mm 0,0 UV-I 0 W/m 11,8 C 11,5 C 14,5 km/h (3 Bft) 100,00 %
20.09.2016 02:12 12,3 C 97 % 1014,7 hPa 0,0 l/m 7,3 km/h (2 Bft) W-SW 247 0 min 0,000 mm 0,0 UV-I 0 W/m 11,8 C 11,7 C 11,3 km/h (2 Bft) 100,00 %
20.09.2016 02:14 12,3 C 98 % 1014,6 hPa 0,0 l/m 6,8 km/h (2 Bft) W-SW 250 0 min 0,000 mm 0,0 UV-I 0 W/m 12,0 C 12,0 C 11,3 km/h (2 Bft) 97,87 %
20.09.2016 02:16 12,3 C 97 % 1014,6 hPa 0,2 l/m 6,9 km/h (2 Bft) W-SW 255 0 min 0,000 mm 0,0 UV-I 0 W/m 11,8 C 12,0 C 11,3 km/h (2 Bft) 100,00 %
20.09.2016 02:18 12,3 C 97 % 1014,6 hPa 0,0 l/m 8,3 km/h (2 Bft) W-SW 255 0 min 0,000 mm 0,0 UV-I 0 W/m 11,8 C 11,1 C 14,5 km/h (3 Bft) 100,00 %
20.09.2016 02:20 12,3 C 97 % 1014,7 hPa 0,0 l/m 6,8 km/h (2 Bft) W-SW 251 0 min 0,000 mm 0,0 UV-I 0 W/m 11,8 C 12,0 C 11,3 km/h (2 Bft) 97,87 %
20.09.2016 02:22 12,3 C 98 % 1014,7 hPa 0,0 l/m 9,4 km/h (2 Bft) W 274 0 min 0,000 mm 0,0 UV-I 0 W/m 12,0 C 10,5 C 16,1 km/h (3 Bft) 100,00 %
20.09.2016 02:24 12,3 C 98 % 1014,7 hPa 0,0 l/m 5,9 km/h (2 Bft) W-SW 251 0 min 0,000 mm 0,0 UV-I 0 W/m 12,0 C 12,3 C 9,7 km/h (2 Bft) 100,00 %
20.09.2016 02:26 12,3 C 98 % 1014,7 hPa 0,0 l/m 5,1 km/h (1 Bft) W 275 0 min 0,000 mm 0,0 UV-I 0 W/m 12,0 C 12,3 C 9,7 km/h (2 Bft) 100,00 %
20.09.2016 02:28 12,3 C 98 % 1014,7 hPa 0,0 l/m 3,6 km/h (1 Bft) W-NW 284 0 min 0,000 mm 0,0 UV-I 0 W/m 12,0 C 12,3 C 6,4 km/h (2 Bft) 100,00 %
20.09.2016 02:30 12,3 C 98 % 1014,7 hPa 0,0 l/m 4,3 km/h (1 Bft) W-SW 252 0 min 0,000 mm 0,0 UV-I 0 W/m 12,0 C 12,3 C 6,4 km/h (2 Bft) 97,87 %
20.09.2016 02:32 12,3 C 98 % 1014,7 hPa 0,0 l/m 4,4 km/h (1 Bft) W-NW 283 0 min 0,000 mm 0,0 UV-I 0 W/m 12,0 C 12,3 C 9,7 km/h (2 Bft) 97,87 %
20.09.2016 02:34 12,3 C 98 % 1014,7 hPa 0,0 l/m 3,0 km/h (1 Bft) W 275 0 min 0,000 mm 0,0 UV-I 0 W/m 12,0 C 12,3 C 4,8 km/h (1 Bft) 100,00 %
20.09.2016 02:36 12,3 C 98 % 1014,7 hPa 0,0 l/m 4,0 km/h (1 Bft) W 274 0 min 0,000 mm 0,0 UV-I 0 W/m 12,0 C 12,3 C 4,8 km/h (1 Bft) 100,00 %
20.09.2016 02:38 12,3 C 98 % 1014,7 hPa 0,0 l/m 4,2 km/h (1 Bft) W 272 0 min 0,000 mm 0,0 UV-I 0 W/m 12,0 C 12,3 C 9,7 km/h (2 Bft) 100,00 %
20.09.2016 02:40 12,3 C 98 % 1014,7 hPa 0,0 l/m 4,0 km/h (1 Bft) W 263 0 min 0,000 mm 0,0 UV-I 0 W/m 12,0 C 12,3 C 6,4 km/h (2 Bft) 100,00 %
20.09.2016 02:42 12,3 C 98 % 1014,7 hPa 0,2 l/m 4,2 km/h (1 Bft) W 279 0 min 0,000 mm 0,0 UV-I 0 W/m 12,0 C 12,3 C 6,4 km/h (2 Bft) 100,00 %
20.09.2016 02:44 12,3 C 98 % 1014,8 hPa 0,0 l/m 2,1 km/h (1 Bft) W 279 0 min 0,000 mm 0,0 UV-I 0 W/m 12,0 C 12,3 C 4,8 km/h (1 Bft) 100,00 %
20.09.2016 02:46 12,3 C 98 % 1014,7 hPa 0,0 l/m 1,3 km/h (1 Bft) N-NW 333 0 min 0,000 mm 0,0 UV-I 0 W/m 12,0 C 12,3 C 3,2 km/h (1 Bft) 100,00 %
20.09.2016 02:48 12,3 C 98 % 1014,7 hPa 0,0 l/m 1,4 km/h (1 Bft) N-NW 348 0 min 0,000 mm 0,0 UV-I 0 W/m 12,0 C 12,3 C 4,8 km/h (1 Bft) 100,00 %
20.09.2016 02:50 12,3 C 98 % 1014,7 hPa 0,2 l/m 1,4 km/h (1 Bft) W-NW 294 0 min 0,000 mm 0,0 UV-I 0 W/m 12,0 C 12,3 C 4,8 km/h (1 Bft) 97,87 %
20.09.2016 02:52 12,2 C 98 % 1014,7 hPa 0,0 l/m 2,4 km/h (1 Bft) W-NW 299 0 min 0,000 mm 0,0 UV-I 0 W/m 11,9 C 12,2 C 8,0 km/h (2 Bft) 97,87 %
20.09.2016 02:54 12,2 C 98 % 1014,7 hPa 0,0 l/m 3,5 km/h (1 Bft) NW 322 0 min 0,000 mm 0,0 UV-I 0 W/m 11,9 C 12,2 C 9,7 km/h (2 Bft) 95,74 %
20.09.2016 02:56 12,2 C 98 % 1014,7 hPa 0,2 l/m 0,0 km/h (0 Bft) NW 322 0 min 0,000 mm 0,0 UV-I 0 W/m 11,9 C 12,2 C 0,0 km/h (0 Bft) 100,00 %
20.09.2016 02:58 12,2 C 98 % 1014,7 hPa 0,0 l/m 0,2 km/h (0 Bft) NW 322 0 min 0,000 mm 0,0 UV-I 0 W/m 11,9 C 12,2 C 1,6 km/h (1 Bft) 97,87 %
20.09.2016 03:00 12,2 C 98 % 1014,7 hPa 0,2 l/m 2,0 km/h (1 Bft) N-NW 327 0 min 0,000 mm 0,0 UV-I 0 W/m 11,9 C 12,2 C 6,4 km/h (2 Bft) 97,87 %
20.09.2016 03:02 12,2 C 98 % 1014,7 hPa 0,0 l/m 3,2 km/h (1 Bft) NW 308 0 min 0,000 mm 0,0 UV-I 0 W/m 11,9 C 12,2 C 6,4 km/h (2 Bft) 97,87 %
20.09.2016 03:04 12,2 C 97 % 1014,7 hPa 0,0 l/m 2,2 km/h (1 Bft) W-NW 294 0 min 0,000 mm 0,0 UV-I 0 W/m 11,7 C 12,2 C 4,8 km/h (1 Bft) 97,87 %
20.09.2016 03:06 12,2 C 97 % 1014,7 hPa 0,0 l/m 0,3 km/h (0 Bft) W-NW 294 0 min 0,000 mm 0,0 UV-I 0 W/m 11,7 C 12,2 C 3,2 km/h (1 Bft) 98,00 %
20.09.2016 03:08 12,2 C 97 % 1014,7 hPa 0,0 l/m 1,1 km/h (1 Bft) W-NW 297 0 min 0,000 mm 0,0 UV-I 0 W/m 11,7 C 12,2 C 6,4 km/h (2 Bft) 100,00 %
20.09.2016 03:10 12,1 C 97 % 1014,7 hPa 0,0 l/m 5,4 km/h (1 Bft) W 259 0 min 0,000 mm 0,0 UV-I 0 W/m 11,6 C 12,1 C 12,9 km/h (3 Bft) 97,87 %
20.09.2016 03:12 12,0 C 97 % 1014,7 hPa 0,2 l/m 2,2 km/h (1 Bft) N-NW 336 0 min 0,000 mm 0,0 UV-I 0 W/m 11,5 C 12,0 C 4,8 km/h (1 Bft) 100,00 %
20.09.2016 03:14 11,9 C 97 % 1014,7 hPa 0,0 l/m 2,9 km/h (1 Bft) W-NW 303 0 min 0,000 mm 0,0 UV-I 0 W/m 11,4 C 11,9 C 4,8 km/h (1 Bft) 100,00 %
20.09.2016 03:16 11,9 C 97 % 1014,7 hPa 0,2 l/m 1,1 km/h (1 Bft) W-NW 303 0 min 0,000 mm 0,0 UV-I 0 W/m 11,4 C 11,9 C 3,2 km/h (1 Bft) 100,00 %
20.09.2016 03:18 11,8 C 97 % 1014,7 hPa 0,0 l/m 0,7 km/h (0 Bft) NW 307 0 min 0,000 mm 0,0 UV-I 0 W/m 11,3 C 11,8 C 3,2 km/h (1 Bft) 97,87 %
20.09.2016 03:20 11,8 C 97 % 1014,7 hPa 0,0 l/m 1,1 km/h (1 Bft) NW 319 0 min 0,000 mm 0,0 UV-I 0 W/m 11,3 C 11,8 C 4,8 km/h (1 Bft) 97,44 %
20.09.2016 03:22 11,7 C 97 % 1014,7 hPa 0,0 l/m 3,8 km/h (1 Bft) W-NW 286 0 min 0,000 mm 0,0 UV-I 0 W/m 11,2 C 11,7 C 4,8 km/h (1 Bft) 97,92 %
20.09.2016 03:24 11,7 C 97 % 1014,7 hPa 0,2 l/m 2,2 km/h (1 Bft) W-NW 285 0 min 0,000 mm 0,0 UV-I 0 W/m 11,2 C 11,7 C 4,8 km/h (1 Bft) 97,96 %
20.09.2016 03:26 11,7 C 97 % 1014,7 hPa 0,0 l/m 1,2 km/h (1 Bft) W-NW 288 0 min 0,000 mm 0,0 UV-I 0 W/m 11,2 C 11,7 C 3,2 km/h (1 Bft) 100,00 %
20.09.2016 03:28 11,6 C 97 % 1014,8 hPa 0,0 l/m 0,1 km/h (0 Bft) W-NW 288 0 min 0,000 mm 0,0 UV-I 0 W/m 11,1 C 11,6 C 1,6 km/h (1 Bft) 97,87 %
20.09.2016 03:30 11,6 C 97 % 1014,7 hPa 0,2 l/m 1,2 km/h (1 Bft) NW 308 0 min 0,000 mm 0,0 UV-I 0 W/m 11,1 C 11,6 C 3,2 km/h (1 Bft) 100,00 %
20.09.2016 03:32 11,6 C 97 % 1014,8 hPa 0,0 l/m 0,5 km/h (0 Bft) NW 308 0 min 0,000 mm 0,0 UV-I 0 W/m 11,1 C 11,6 C 1,6 km/h (1 Bft) 97,87 %
20.09.2016 03:34 11,6 C 98 % 1014,8 hPa 0,0 l/m 0,0 km/h (0 Bft) NW 308 0 min 0,000 mm 0,0 UV-I 0 W/m 11,3 C 11,6 C 0,0 km/h (0 Bft) 100,00 %
20.09.2016 03:36 11,6 C 98 % 1014,8 hPa 0,0 l/m 0,6 km/h (0 Bft) NW 308 0 min 0,000 mm 0,0 UV-I 0 W/m 11,3 C 11,6 C 1,6 km/h (1 Bft) 97,14 %
20.09.2016 03:38 11,6 C 97 % 1014,8 hPa 0,2 l/m 0,1 km/h (0 Bft) NW 308 0 min 0,000 mm 0,0 UV-I 0 W/m 11,1 C 11,6 C 1,6 km/h (1 Bft) 97,96 %
20.09.2016 03:40 11,6 C 98 % 1014,8 hPa 0,0 l/m 0,0 km/h (0 Bft) NW 308 0 min 0,000 mm 0,0 UV-I 0 W/m 11,3 C 11,6 C 1,6 km/h (1 Bft) 95,74 %
20.09.2016 03:42 11,6 C 98 % 1014,8 hPa 0,2 l/m 1,4 km/h (1 Bft) NW 308 0 min 0,000 mm 0,0 UV-I 0 W/m 11,3 C 11,6 C 3,2 km/h (1 Bft) 95,74 %
20.09.2016 03:44 11,6 C 98 % 1014,7 hPa 0,0 l/m 0,2 km/h (0 Bft) NW 308 0 min 0,000 mm 0,0 UV-I 0 W/m 11,3 C 11,6 C 1,6 km/h (1 Bft) 91,49 %
20.09.2016 03:46 11,6 C 98 % 1014,8 hPa 0,0 l/m 2,0 km/h (1 Bft) W-NW 296 0 min 0,000 mm 0,0 UV-I 0 W/m 11,3 C 11,6 C 4,8 km/h (1 Bft) 97,87 %
20.09.2016 03:48 11,6 C 98 % 1014,8 hPa 0,2 l/m 1,7 km/h (1 Bft) W-NW 296 0 min 0,000 mm 0,0 UV-I 0 W/m 11,3 C 11,6 C 3,2 km/h (1 Bft) 98,00 %
20.09.2016 03:50 11,6 C 98 % 1014,8 hPa 0,0 l/m 1,8 km/h (1 Bft) W-NW 296 0 min 0,000 mm 0,0 UV-I 0 W/m 11,3 C 11,6 C 4,8 km/h (1 Bft) 94,29 %
20.09.2016 03:52 11,6 C 98 % 1014,8 hPa 0,2 l/m 2,0 km/h (1 Bft) W-NW 296 0 min 0,000 mm 0,0 UV-I 0 W/m 11,3 C 11,6 C 3,2 km/h (1 Bft) 95,16 %
20.09.2016 03:54 11,7 C 98 % 1014,8 hPa 0,0 l/m 2,4 km/h (1 Bft) W-NW 296 0 min 0,000 mm 0,0 UV-I 0 W/m 11,4 C 11,7 C 3,2 km/h (1 Bft) 95,74 %
20.09.2016 03:56 11,7 C 98 % 1014,8 hPa 0,0 l/m 1,4 km/h (1 Bft) W-NW 296 0 min 0,000 mm 0,0 UV-I 0 W/m 11,4 C 11,7 C 4,8 km/h (1 Bft) 91,67 %
20.09.2016 03:58 11,7 C 98 % 1014,8 hPa 0,2 l/m 1,4 km/h (1 Bft) W-NW 296 0 min 0,000 mm 0,0 UV-I 0 W/m 11,4 C 11,7 C 3,2 km/h (1 Bft) 97,87 %
20.09.2016 04:00 11,7 C 98 % 1014,9 hPa 0,0 l/m 0,5 km/h (0 Bft) W-NW 296 0 min 0,000 mm 0,0 UV-I 0 W/m 11,4 C 11,7 C 1,6 km/h (1 Bft) 95,74 %
20.09.2016 04:02 11,7 C 98 % 1014,8 hPa 0,0 l/m 0,0 km/h (0 Bft) W-NW 296 0 min 0,000 mm 0,0 UV-I 0 W/m 11,4 C 11,7 C 0,0 km/h (0 Bft) 100,00 %
20.09.2016 04:04 11,7 C 98 % 1014,8 hPa 0,2 l/m 0,7 km/h (0 Bft) W-NW 296 0 min 0,000 mm 0,0 UV-I 0 W/m 11,4 C 11,7 C 3,2 km/h (1 Bft) 97,44 %
20.09.2016 04:06 11,7 C 98 % 1014,8 hPa 0,0 l/m 1,0 km/h (0 Bft) W-NW 296 0 min 0,000 mm 0,0 UV-I 0 W/m 11,4 C 11,7 C 3,2 km/h (1 Bft) 97,92 %
20.09.2016 04:08 11,7 C 98 % 1014,8 hPa 0,2 l/m 0,6 km/h (0 Bft) W-NW 296 0 min 0,000 mm 0,0 UV-I 0 W/m 11,4 C 11,7 C 3,2 km/h (1 Bft) 95,74 %
20.09.2016 04:10 11,8 C 98 % 1014,8 hPa 0,0 l/m 0,9 km/h (0 Bft) W-NW 296 0 min 0,000 mm 0,0 UV-I 0 W/m 11,5 C 11,8 C 3,2 km/h (1 Bft) 96,00 %
20.09.2016 04:12 11,8 C 98 % 1014,8 hPa 0,2 l/m 1,2 km/h (1 Bft) W-NW 296 0 min 0,000 mm 0,0 UV-I 0 W/m 11,5 C 11,8 C 3,2 km/h (1 Bft) 100,00 %
20.09.2016 04:14 11,8 C 98 % 1014,8 hPa 0,0 l/m 0,5 km/h (0 Bft) NW 313 0 min 0,000 mm 0,0 UV-I 0 W/m 11,5 C 11,8 C 1,6 km/h (1 Bft) 100,00 %
20.09.2016 04:16 11,8 C 98 % 1014,7 hPa 0,2 l/m 0,3 km/h (0 Bft) NW 313 0 min 0,000 mm 0,0 UV-I 0 W/m 11,5 C 11,8 C 1,6 km/h (1 Bft) 97,22 %
20.09.2016 04:18 11,8 C 98 % 1014,8 hPa 0,2 l/m 1,4 km/h (1 Bft) NW 313 0 min 0,000 mm 0,0 UV-I 0 W/m 11,5 C 11,8 C 3,2 km/h (1 Bft) 98,00 %
20.09.2016 04:20 11,8 C 98 % 1014,8 hPa 0,0 l/m 0,3 km/h (0 Bft) NW 313 0 min 0,000 mm 0,0 UV-I 0 W/m 11,5 C 11,8 C 3,2 km/h (1 Bft) 100,00 %
20.09.2016 04:22 11,8 C 98 % 1014,8 hPa 0,0 l/m 0,9 km/h (0 Bft) NW 321 0 min 0,000 mm 0,0 UV-I 0 W/m 11,5 C 11,8 C 4,8 km/h (1 Bft) 100,00 %
20.09.2016 04:24 11,8 C 98 % 1014,8 hPa 0,2 l/m 2,1 km/h (1 Bft) NW 323 0 min 0,000 mm 0,0 UV-I 0 W/m 11,5 C 11,8 C 4,8 km/h (1 Bft) 100,00 %
20.09.2016 04:26 11,8 C 98 % 1014,8 hPa 0,0 l/m 0,8 km/h (0 Bft) NW 323 0 min 0,000 mm 0,0 UV-I 0 W/m 11,5 C 11,8 C 3,2 km/h (1 Bft) 100,00 %
20.09.2016 04:28 11,8 C 98 % 1014,8 hPa 0,0 l/m 0,3 km/h (0 Bft) NW 323 0 min 0,000 mm 0,0 UV-I 0 W/m 11,5 C 11,8 C 1,6 km/h (1 Bft) 100,00 %
20.09.2016 04:30 11,8 C 98 % 1014,8 hPa 0,2 l/m 1,4 km/h (1 Bft) NW 323 0 min 0,000 mm 0,0 UV-I 0 W/m 11,5 C 11,8 C 3,2 km/h (1 Bft) 95,74 %
20.09.2016 04:32 11,9 C 98 % 1014,8 hPa 0,0 l/m 1,4 km/h (1 Bft) W 280 0 min 0,000 mm 0,0 UV-I 0 W/m 11,6 C 11,9 C 4,8 km/h (1 Bft) 100,00 %
20.09.2016 04:34 11,8 C 98 % 1014,8 hPa 0,2 l/m 0,2 km/h (0 Bft) W 280 0 min 0,000 mm 0,0 UV-I 0 W/m 11,5 C 11,8 C 1,6 km/h (1 Bft) 100,00 %
20.09.2016 04:36 11,9 C 98 % 1014,8 hPa 0,0 l/m 1,3 km/h (1 Bft) W 280 0 min 0,000 mm 0,0 UV-I 0 W/m 11,6 C 11,9 C 3,2 km/h (1 Bft) 100,00 %
20.09.2016 04:38 11,9 C 98 % 1014,8 hPa 0,0 l/m 0,0 km/h (0 Bft) W 280 0 min 0,000 mm 0,0 UV-I 0 W/m 11,6 C 11,9 C 1,6 km/h (1 Bft) 100,00 %
20.09.2016 04:40 11,9 C 98 % 1014,8 hPa 0,0 l/m 0,1 km/h (0 Bft) W 280 0 min 0,000 mm 0,0 UV-I 0 W/m 11,6 C 11,9 C 1,6 km/h (1 Bft) 97,22 %
20.09.2016 04:42 11,9 C 98 % 1014,8 hPa 0,0 l/m 0,5 km/h (0 Bft) W 280 0 min 0,000 mm 0,0 UV-I 0 W/m 11,6 C 11,9 C 1,6 km/h (1 Bft) 100,00 %
20.09.2016 04:44 11,9 C 98 % 1014,8 hPa 0,0 l/m 1,2 km/h (1 Bft) W 280 0 min 0,000 mm 0,0 UV-I 0 W/m 11,6 C 11,9 C 3,2 km/h (1 Bft) 100,00 %
20.09.2016 04:46 11,8 C 98 % 1014,8 hPa 0,0 l/m 2,1 km/h (1 Bft) NW 323 0 min 0,000 mm 0,0 UV-I 0 W/m 11,5 C 11,8 C 4,8 km/h (1 Bft) 97,87 %
20.09.2016 04:48 11,8 C 98 % 1014,8 hPa 0,0 l/m 0,1 km/h (0 Bft) NW 323 0 min 0,000 mm 0,0 UV-I 0 W/m 11,5 C 11,8 C 1,6 km/h (1 Bft) 100,00 %
20.09.2016 04:50 11,8 C 98 % 1014,9 hPa 0,0 l/m 1,0 km/h (0 Bft) NW 323 0 min 0,000 mm 0,0 UV-I 0 W/m 11,5 C 11,8 C 1,6 km/h (1 Bft) 100,00 %
20.09.2016 04:52 11,8 C 98 % 1014,9 hPa 0,0 l/m 1,2 km/h (1 Bft) W-NW 303 0 min 0,000 mm 0,0 UV-I 0 W/m 11,5 C 11,8 C 4,8 km/h (1 Bft) 97,87 %
20.09.2016 04:54 11,8 C 98 % 1014,9 hPa 0,0 l/m 0,0 km/h (0 Bft) W-NW 303 0 min 0,000 mm 0,0 UV-I 0 W/m 11,5 C 11,8 C 1,6 km/h (1 Bft) 96,00 %
20.09.2016 04:56 11,8 C 98 % 1014,9 hPa 0,0 l/m 0,3 km/h (0 Bft) W-NW 303 0 min 0,000 mm 0,0 UV-I 0 W/m 11,5 C 11,8 C 1,6 km/h (1 Bft) 100,00 %
20.09.2016 04:58 11,8 C 98 % 1014,9 hPa 0,2 l/m 0,9 km/h (0 Bft) W-NW 303 0 min 0,000 mm 0,0 UV-I 0 W/m 11,5 C 11,8 C 3,2 km/h (1 Bft) 95,74 %
20.09.2016 05:00 11,8 C 98 % 1014,9 hPa 0,0 l/m 1,4 km/h (1 Bft) W-NW 303 0 min 0,000 mm 0,0 UV-I 0 W/m 11,5 C 11,8 C 3,2 km/h (1 Bft) 97,87 %
20.09.2016 05:02 11,8 C 98 % 1014,9 hPa 0,0 l/m 0,9 km/h (0 Bft) W-NW 300 0 min 0,000 mm 0,0 UV-I 0 W/m 11,5 C 11,8 C 4,8 km/h (1 Bft) 100,00 %
20.09.2016 05:04 11,8 C 98 % 1014,9 hPa 0,0 l/m 0,7 km/h (0 Bft) W-NW 300 0 min 0,000 mm 0,0 UV-I 0 W/m 11,5 C 11,8 C 3,2 km/h (1 Bft) 95,74 %
20.09.2016 05:06 11,8 C 98 % 1014,9 hPa 0,0 l/m 2,0 km/h (1 Bft) W-SW 245 0 min 0,000 mm 0,0 UV-I 0 W/m 11,5 C 11,8 C 6,4 km/h (2 Bft) 97,87 %
20.09.2016 05:08 11,8 C 98 % 1014,9 hPa 0,0 l/m 2,9 km/h (1 Bft) W-SW 245 0 min 0,000 mm 0,0 UV-I 0 W/m 11,5 C 11,8 C 4,8 km/h (1 Bft) 100,00 %
20.09.2016 05:10 11,8 C 98 % 1014,9 hPa 0,0 l/m 3,4 km/h (1 Bft) W-NW 294 0 min 0,000 mm 0,0 UV-I 0 W/m 11,5 C 11,8 C 4,8 km/h (1 Bft) 97,87 %
20.09.2016 05:12 11,8 C 98 % 1014,9 hPa 0,0 l/m 1,0 km/h (0 Bft) W-NW 294 0 min 0,000 mm 0,0 UV-I 0 W/m 11,5 C 11,8 C 4,8 km/h (1 Bft) 95,74 %
20.09.2016 05:14 11,8 C 98 % 1014,9 hPa 0,0 l/m 1,5 km/h (1 Bft) W-NW 294 0 min 0,000 mm 0,0 UV-I 0 W/m 11,5 C 11,8 C 3,2 km/h (1 Bft) 97,37 %
20.09.2016 05:16 11,8 C 98 % 1014,9 hPa 0,0 l/m 2,5 km/h (1 Bft) W-NW 293 0 min 0,000 mm 0,0 UV-I 0 W/m 11,5 C 11,8 C 6,4 km/h (2 Bft) 100,00 %
20.09.2016 05:18 11,8 C 98 % 1014,9 hPa 0,0 l/m 1,4 km/h (1 Bft) W-NW 293 0 min 0,000 mm 0,0 UV-I 0 W/m 11,5 C 11,8 C 3,2 km/h (1 Bft) 100,00 %
20.09.2016 05:20 11,8 C 98 % 1014,9 hPa 0,0 l/m 1,6 km/h (1 Bft) W-NW 293 0 min 0,000 mm 0,0 UV-I 0 W/m 11,5 C 11,8 C 3,2 km/h (1 Bft) 100,00 %
20.09.2016 05:22 11,8 C 98 % 1014,9 hPa 0,0 l/m 1,6 km/h (1 Bft) W-NW 293 0 min 0,000 mm 0,0 UV-I 0 W/m 11,5 C 11,8 C 3,2 km/h (1 Bft) 100,00 %
20.09.2016 05:24 11,8 C 98 % 1014,9 hPa 0,0 l/m 2,8 km/h (1 Bft) W 265 0 min 0,000 mm 0,0 UV-I 0 W/m 11,5 C 11,8 C 6,4 km/h (2 Bft) 95,74 %
20.09.2016 05:26 11,8 C 98 % 1014,9 hPa 0,0 l/m 1,4 km/h (1 Bft) W 265 0 min 0,000 mm 0,0 UV-I 0 W/m 11,5 C 11,8 C 4,8 km/h (1 Bft) 100,00 %
20.09.2016 05:28 11,8 C 98 % 1014,9 hPa 0,0 l/m 1,6 km/h (1 Bft) W 265 0 min 0,000 mm 0,0 UV-I 0 W/m 11,5 C 11,8 C 3,2 km/h (1 Bft) 97,87 %
20.09.2016 05:30 11,8 C 98 % 1014,9 hPa 0,0 l/m 1,2 km/h (1 Bft) W 265 0 min 0,000 mm 0,0 UV-I 0 W/m 11,5 C 11,8 C 3,2 km/h (1 Bft) 95,74 %
20.09.2016 05:32 11,8 C 98 % 1014,9 hPa 0,0 l/m 1,6 km/h (1 Bft) W 265 0 min 0,000 mm 0,0 UV-I 0 W/m 11,5 C 11,8 C 4,8 km/h (1 Bft) 100,00 %
20.09.2016 05:34 11,8 C 98 % 1014,9 hPa 0,0 l/m 2,3 km/h (1 Bft) W 277 0 min 0,000 mm 0,0 UV-I 0 W/m 11,5 C 11,8 C 4,8 km/h (1 Bft) 100,00 %
20.09.2016 05:36 11,8 C 98 % 1014,9 hPa 0,0 l/m 2,5 km/h (1 Bft) W-SW 256 0 min 0,000 mm 0,0 UV-I 0 W/m 11,5 C 11,8 C 4,8 km/h (1 Bft) 93,62 %
20.09.2016 05:38 11,8 C 98 % 1014,9 hPa 0,0 l/m 2,8 km/h (1 Bft) W 269 0 min 0,000 mm 0,0 UV-I 0 W/m 11,5 C 11,8 C 4,8 km/h (1 Bft) 97,87 %
20.09.2016 05:40 11,7 C 98 % 1014,9 hPa 0,0 l/m 1,5 km/h (1 Bft) W 269 0 min 0,000 mm 0,0 UV-I 0 W/m 11,4 C 11,7 C 3,2 km/h (1 Bft) 95,74 %
20.09.2016 05:42 11,7 C 98 % 1014,9 hPa 0,0 l/m 3,9 km/h (1 Bft) W 279 0 min 0,000 mm 0,0 UV-I 0 W/m 11,4 C 11,7 C 6,4 km/h (2 Bft) 91,49 %
20.09.2016 05:44 11,7 C 98 % 1014,9 hPa 0,0 l/m 3,0 km/h (1 Bft) W-SW 255 0 min 0,000 mm 0,0 UV-I 0 W/m 11,4 C 11,7 C 4,8 km/h (1 Bft) 95,74 %
20.09.2016 05:46 11,7 C 98 % 1014,9 hPa 0,0 l/m 3,3 km/h (1 Bft) W-NW 302 0 min 0,000 mm 0,0 UV-I 0 W/m 11,4 C 11,7 C 6,4 km/h (2 Bft) 93,62 %
20.09.2016 05:48 11,8 C 98 % 1015,0 hPa 0,0 l/m 2,3 km/h (1 Bft) W-NW 292 0 min 0,000 mm 0,0 UV-I 0 W/m 11,5 C 11,8 C 6,4 km/h (2 Bft) 95,74 %
20.09.2016 05:50 11,8 C 98 % 1015,0 hPa 0,0 l/m 3,7 km/h (1 Bft) W-NW 291 0 min 0,000 mm 0,0 UV-I 0 W/m 11,5 C 11,8 C 4,8 km/h (1 Bft) 97,87 %
20.09.2016 05:52 11,7 C 98 % 1014,9 hPa 0,0 l/m 3,1 km/h (1 Bft) W-NW 291 0 min 0,000 mm 0,0 UV-I 0 W/m 11,4 C 11,7 C 8,0 km/h (2 Bft) 95,74 %
20.09.2016 05:54 11,7 C 98 % 1015,0 hPa 0,0 l/m 4,8 km/h (1 Bft) W 277 0 min 0,000 mm 0,0 UV-I 0 W/m 11,4 C 11,7 C 8,0 km/h (2 Bft) 95,74 %
20.09.2016 05:56 11,7 C 98 % 1014,9 hPa 0,0 l/m 3,5 km/h (1 Bft) W-NW 298 0 min 0,000 mm 0,0 UV-I 0 W/m 11,4 C 11,7 C 6,4 km/h (2 Bft) 95,74 %
20.09.2016 05:58 11,7 C 98 % 1014,9 hPa 0,0 l/m 2,6 km/h (1 Bft) W-NW 294 0 min 0,000 mm 0,0 UV-I 0 W/m 11,4 C 11,7 C 4,8 km/h (1 Bft) 92,00 %
20.09.2016 06:00 11,7 C 98 % 1015,0 hPa 0,0 l/m 2,8 km/h (1 Bft) W-NW 292 0 min 0,000 mm 0,0 UV-I 0 W/m 11,4 C 11,7 C 4,8 km/h (1 Bft) 100,00 %
20.09.2016 06:02 11,8 C 98 % 1014,9 hPa 0,0 l/m 1,7 km/h (1 Bft) W-NW 292 0 min 0,000 mm 0,0 UV-I 0 W/m 11,5 C 11,8 C 3,2 km/h (1 Bft) 96,00 %
20.09.2016 06:04 11,8 C 98 % 1014,9 hPa 0,0 l/m 1,3 km/h (1 Bft) W-NW 292 0 min 0,000 mm 0,0 UV-I 0 W/m 11,5 C 11,8 C 3,2 km/h (1 Bft) 97,87 %
20.09.2016 06:06 11,8 C 98 % 1014,9 hPa 0,0 l/m 0,6 km/h (0 Bft) W-NW 292 0 min 0,000 mm 0,0 UV-I 0 W/m 11,5 C 11,8 C 1,6 km/h (1 Bft) 95,74 %
20.09.2016 06:08 11,8 C 98 % 1014,9 hPa 0,0 l/m 2,0 km/h (1 Bft) W-NW 292 0 min 0,000 mm 0,0 UV-I 0 W/m 11,5 C 11,8 C 4,8 km/h (1 Bft) 97,87 %
20.09.2016 06:10 11,8 C 98 % 1014,9 hPa 0,0 l/m 2,3 km/h (1 Bft) W-NW 287 0 min 0,000 mm 0,0 UV-I 0 W/m 11,5 C 11,8 C 3,2 km/h (1 Bft) 100,00 %
20.09.2016 06:12 11,8 C 98 % 1015,0 hPa 0,0 l/m 0,2 km/h (0 Bft) W-NW 287 0 min 0,000 mm 0,0 UV-I 0 W/m 11,5 C 11,8 C 1,6 km/h (1 Bft) 95,74 %
20.09.2016 06:14 11,8 C 98 % 1014,9 hPa 0,0 l/m 2,5 km/h (1 Bft) W-NW 290 0 min 0,000 mm 0,0 UV-I 0 W/m 11,5 C 11,8 C 4,8 km/h (1 Bft) 100,00 %
20.09.2016 06:16 11,7 C 98 % 1014,9 hPa 0,2 l/m 2,6 km/h (1 Bft) W-NW 287 0 min 0,000 mm 0,0 UV-I 0 W/m 11,4 C 11,7 C 4,8 km/h (1 Bft) 98,00 %
20.09.2016 06:18 11,7 C 98 % 1014,9 hPa 0,0 l/m 1,8 km/h (1 Bft) W-NW 288 0 min 0,000 mm 0,0 UV-I 0 W/m 11,4 C 11,7 C 3,2 km/h (1 Bft) 100,00 %
20.09.2016 06:24 11,7 C 98 % 1015,0 hPa 0,0 l/m 0,8 km/h (0 Bft) W-NW 284 0 min 0,000 mm 0,0 UV-I 0 W/m 11,4 C 11,7 C 3,2 km/h (1 Bft) 99,32 %
20.09.2016 06:26 11,7 C 98 % 1015,0 hPa 0,0 l/m 3,1 km/h (1 Bft) W 266 0 min 0,000 mm 0,0 UV-I 0 W/m 11,4 C 11,7 C 8,0 km/h (2 Bft) 97,87 %
20.09.2016 06:28 11,7 C 98 % 1015,1 hPa 0,0 l/m 0,1 km/h (0 Bft) W 266 0 min 0,000 mm 0,0 UV-I 0 W/m 11,4 C 11,7 C 1,6 km/h (1 Bft) 98,00 %
20.09.2016 06:30 11,7 C 98 % 1015,1 hPa 0,0 l/m 2,4 km/h (1 Bft) NW 315 0 min 0,000 mm 0,0 UV-I 0 W/m 11,4 C 11,7 C 6,4 km/h (2 Bft) 97,37 %
20.09.2016 06:32 11,7 C 98 % 1015,1 hPa 0,0 l/m 3,1 km/h (1 Bft) W 278 0 min 0,000 mm 0,0 UV-I 0 W/m 11,4 C 11,7 C 4,8 km/h (1 Bft) 100,00 %
20.09.2016 06:34 11,7 C 98 % 1015,1 hPa 0,2 l/m 0,8 km/h (0 Bft) NW 323 0 min 0,000 mm 0,0 UV-I 0 W/m 11,4 C 11,7 C 3,2 km/h (1 Bft) 97,87 %
20.09.2016 06:36 11,7 C 98 % 1015,1 hPa 0,0 l/m 0,1 km/h (0 Bft) NW 323 0 min 0,000 mm 0,0 UV-I 0 W/m 11,4 C 11,7 C 1,6 km/h (1 Bft) 100,00 %
20.09.2016 06:38 11,7 C 98 % 1015,1 hPa 0,0 l/m 0,1 km/h (0 Bft) NW 323 0 min 0,000 mm 0,0 UV-I 0 W/m 11,4 C 11,7 C 1,6 km/h (1 Bft) 97,22 %
20.09.2016 06:40 11,7 C 98 % 1015,2 hPa 0,0 l/m 0,5 km/h (0 Bft) NW 323 0 min 0,000 mm 0,0 UV-I 0 W/m 11,4 C 11,7 C 1,6 km/h (1 Bft) 100,00 %
20.09.2016 06:42 11,7 C 98 % 1015,2 hPa 0,0 l/m 0,7 km/h (0 Bft) NW 323 0 min 0,000 mm 0,0 UV-I 0 W/m 11,4 C 11,7 C 1,6 km/h (1 Bft) 100,00 %
20.09.2016 06:44 11,7 C 98 % 1015,2 hPa 0,0 l/m 0,8 km/h (0 Bft) NW 323 0 min 0,000 mm 0,0 UV-I 0 W/m 11,4 C 11,7 C 3,2 km/h (1 Bft) 100,00 %
20.09.2016 06:46 11,7 C 98 % 1015,2 hPa 0,0 l/m 1,4 km/h (1 Bft) NW 323 0 min 0,000 mm 0,0 UV-I 0 W/m 11,4 C 11,7 C 3,2 km/h (1 Bft) 98,00 %
20.09.2016 06:48 11,7 C 98 % 1015,2 hPa 0,0 l/m 2,0 km/h (1 Bft) W-NW 288 0 min 0,000 mm 0,0 UV-I 0 W/m 11,4 C 11,7 C 3,2 km/h (1 Bft) 100,00 %
20.09.2016 06:50 11,7 C 98 % 1015,2 hPa 0,2 l/m 2,5 km/h (1 Bft) W 273 0 min 0,000 mm 0,0 UV-I 0 W/m 11,4 C 11,7 C 6,4 km/h (2 Bft) 100,00 %
20.09.2016 06:52 11,7 C 98 % 1015,2 hPa 0,0 l/m 2,1 km/h (1 Bft) W 273 0 min 0,000 mm 0,0 UV-I 0 W/m 11,4 C 11,7 C 3,2 km/h (1 Bft) 100,00 %
20.09.2016 06:54 11,7 C 98 % 1015,2 hPa 0,0 l/m 0,9 km/h (0 Bft) W 273 0 min 0,000 mm 0,0 UV-I 0 W/m 11,4 C 11,7 C 3,2 km/h (1 Bft) 97,56 %
20.09.2016 06:56 11,7 C 98 % 1015,3 hPa 0,0 l/m 1,2 km/h (1 Bft) W 273 0 min 0,000 mm 0,0 UV-I 0 W/m 11,4 C 11,7 C 3,2 km/h (1 Bft) 100,00 %
20.09.2016 06:58 11,7 C 98 % 1015,3 hPa 0,0 l/m 0,2 km/h (0 Bft) W 273 0 min 0,000 mm 0,0 UV-I 0 W/m 11,4 C 11,7 C 1,6 km/h (1 Bft) 98,00 %
20.09.2016 07:00 11,7 C 98 % 1015,3 hPa 0,0 l/m 2,0 km/h (1 Bft) N-NW 329 0 min 0,000 mm 0,0 UV-I 0 W/m 11,4 C 11,7 C 4,8 km/h (1 Bft) 100,00 %
20.09.2016 07:02 11,7 C 98 % 1015,3 hPa 0,0 l/m 0,2 km/h (0 Bft) N-NW 329 0 min 0,000 mm 0,0 UV-I 0 W/m 11,4 C 11,7 C 1,6 km/h (1 Bft) 100,00 %
20.09.2016 07:04 11,7 C 98 % 1015,3 hPa 0,0 l/m 2,5 km/h (1 Bft) N-NO 15 0 min 0,000 mm 0,0 UV-I 0 W/m 11,4 C 11,7 C 6,4 km/h (2 Bft) 100,00 %
20.09.2016 07:06 11,6 C 98 % 1015,3 hPa 0,2 l/m 2,7 km/h (1 Bft) N-NW 338 0 min 0,000 mm 0,0 UV-I 0 W/m 11,3 C 11,6 C 4,8 km/h (1 Bft) 100,00 %
20.09.2016 07:08 11,6 C 98 % 1015,3 hPa 0,0 l/m 1,6 km/h (1 Bft) N-NW 340 0 min 0,000 mm 0,0 UV-I 0 W/m 11,3 C 11,6 C 3,2 km/h (1 Bft) 98,00 %
20.09.2016 07:10 11,6 C 98 % 1015,3 hPa 0,0 l/m 1,4 km/h (1 Bft) N-NW 340 0 min 0,000 mm 0,0 UV-I 0 W/m 11,3 C 11,6 C 3,2 km/h (1 Bft) 100,00 %
20.09.2016 07:12 11,6 C 98 % 1015,3 hPa 0,0 l/m 1,0 km/h (0 Bft) NW 311 0 min 0,000 mm 0,0 UV-I 0 W/m 11,3 C 11,6 C 4,8 km/h (1 Bft) 100,00 %
20.09.2016 07:14 11,5 C 98 % 1015,3 hPa 0,0 l/m 2,7 km/h (1 Bft) N-NW 333 0 min 0,000 mm 0,0 UV-I 0 W/m 11,2 C 11,5 C 4,8 km/h (1 Bft) 100,00 %
20.09.2016 07:16 11,5 C 98 % 1015,4 hPa 0,0 l/m 1,9 km/h (1 Bft) N-NW 340 0 min 0,000 mm 0,0 UV-I 0 W/m 11,2 C 11,5 C 3,2 km/h (1 Bft) 100,00 %
20.09.2016 07:18 11,5 C 98 % 1015,4 hPa 0,0 l/m 1,6 km/h (1 Bft) N 11 0 min 0,000 mm 0,0 UV-I 0 W/m 11,2 C 11,5 C 4,8 km/h (1 Bft) 97,87 %
20.09.2016 07:20 11,5 C 98 % 1015,5 hPa 0,0 l/m 2,2 km/h (1 Bft) N 5 0 min 0,000 mm 0,0 UV-I 0 W/m 11,2 C 11,5 C 4,8 km/h (1 Bft) 100,00 %
20.09.2016 07:22 11,5 C 98 % 1015,5 hPa 0,0 l/m 2,7 km/h (1 Bft) N 11 0 min 0,000 mm 0,0 UV-I 0 W/m 11,2 C 11,5 C 4,8 km/h (1 Bft) 100,00 %
20.09.2016 07:24 11,5 C 98 % 1015,5 hPa 0,0 l/m 4,1 km/h (1 Bft) N-NW 344 0 min 0,000 mm 0,0 UV-I 0 W/m 11,2 C 11,5 C 9,7 km/h (2 Bft) 98,11 %
20.09.2016 07:26 11,4 C 98 % 1015,6 hPa 0,2 l/m 4,5 km/h (1 Bft) N 5 0 min 0,000 mm 0,0 UV-I 0 W/m 11,1 C 11,4 C 14,5 km/h (3 Bft) 100,00 %
20.09.2016 07:28 11,3 C 98 % 1015,7 hPa 0,0 l/m 4,0 km/h (1 Bft) N 5 0 min 0,000 mm 0,0 UV-I 0 W/m 11,0 C 11,3 C 8,0 km/h (2 Bft) 100,00 %
20.09.2016 07:30 11,2 C 98 % 1015,7 hPa 0,0 l/m 7,5 km/h (2 Bft) NO 35 0 min 0,000 mm 0,0 UV-I 2 W/m 10,9 C 10,4 C 12,9 km/h (3 Bft) 97,87 %
20.09.2016 07:32 11,1 C 98 % 1015,7 hPa 0,0 l/m 6,6 km/h (2 Bft) N-NO 15 0 min 0,000 mm 0,0 UV-I 5 W/m 10,8 C 11,0 C 12,9 km/h (3 Bft) 98,11 %
20.09.2016 07:34 11,1 C 97 % 1015,7 hPa 0,2 l/m 4,8 km/h (1 Bft) NO 36 0 min 0,000 mm 0,0 UV-I 6 W/m 10,6 C 11,1 C 8,0 km/h (2 Bft) 97,14 %
20.09.2016 07:36 11,0 C 97 % 1015,7 hPa 0,0 l/m 6,0 km/h (2 Bft) N 5 0 min 0,000 mm 0,0 UV-I 7 W/m 10,5 C 11,0 C 9,7 km/h (2 Bft) 98,33 %
20.09.2016 07:38 10,9 C 98 % 1015,7 hPa 0,0 l/m 7,4 km/h (2 Bft) NO 34 0 min 0,000 mm 0,0 UV-I 7 W/m 10,6 C 10,2 C 12,9 km/h (3 Bft) 97,56 %
20.09.2016 07:40 10,9 C 98 % 1015,7 hPa 0,0 l/m 3,9 km/h (1 Bft) N-NO 28 0 min 0,000 mm 0,0 UV-I 7 W/m 10,6 C 10,9 C 6,4 km/h (2 Bft) 97,87 %
20.09.2016 07:42 10,9 C 98 % 1015,8 hPa 0,0 l/m 2,8 km/h (1 Bft) N-NO 25 0 min 0,000 mm 0,0 UV-I 7 W/m 10,6 C 10,9 C 4,8 km/h (1 Bft) 95,74 %
20.09.2016 07:44 10,9 C 98 % 1015,7 hPa 0,0 l/m 4,3 km/h (1 Bft) N-NO 32 0 min 0,000 mm 0,0 UV-I 7 W/m 10,6 C 10,9 C 8,0 km/h (2 Bft) 93,62 %
20.09.2016 07:46 10,9 C 98 % 1015,8 hPa 0,2 l/m 3,8 km/h (1 Bft) N-NO 24 0 min 0,000 mm 0,0 UV-I 7 W/m 10,6 C 10,9 C 6,4 km/h (2 Bft) 98,11 %
20.09.2016 07:48 10,9 C 98 % 1015,8 hPa 0,0 l/m 3,3 km/h (1 Bft) N-NO 19 0 min 0,000 mm 0,0 UV-I 9 W/m 10,6 C 10,9 C 8,0 km/h (2 Bft) 97,87 %
20.09.2016 07:50 10,9 C 98 % 1015,8 hPa 0,0 l/m 1,6 km/h (1 Bft) N-NO 15 0 min 0,000 mm 0,0 UV-I 7 W/m 10,6 C 10,9 C 6,4 km/h (2 Bft) 94,29 %
20.09.2016 07:52 10,9 C 98 % 1015,8 hPa 0,0 l/m 3,1 km/h (1 Bft) N-NO 18 0 min 0,000 mm 0,0 UV-I 7 W/m 10,6 C 10,9 C 6,4 km/h (2 Bft) 97,87 %
20.09.2016 07:54 10,9 C 98 % 1015,8 hPa 0,0 l/m 2,4 km/h (1 Bft) N-NO 18 0 min 0,000 mm 0,0 UV-I 7 W/m 10,6 C 10,9 C 4,8 km/h (1 Bft) 96,23 %
20.09.2016 07:56 10,8 C 98 % 1015,8 hPa 0,0 l/m 1,2 km/h (1 Bft) N 11 0 min 0,000 mm 0,0 UV-I 8 W/m 10,5 C 10,8 C 4,8 km/h (1 Bft) 96,00 %
20.09.2016 07:58 10,9 C 98 % 1015,8 hPa 0,0 l/m 2,0 km/h (1 Bft) N-NO 16 0 min 0,000 mm 0,0 UV-I 9 W/m 10,6 C 10,9 C 6,4 km/h (2 Bft) 97,87 %
20.09.2016 08:00 10,9 C 98 % 1015,8 hPa 0,0 l/m 0,1 km/h (0 Bft) N-NO 16 0 min 0,000 mm 0,0 UV-I 10 W/m 10,6 C 10,9 C 1,6 km/h (1 Bft) 97,37 %
20.09.2016 08:02 10,9 C 98 % 1015,9 hPa 0,0 l/m 0,2 km/h (0 Bft) N-NO 16 0 min 0,000 mm 0,0 UV-I 11 W/m 10,6 C 10,9 C 1,6 km/h (1 Bft) 95,74 %
20.09.2016 08:04 10,9 C 98 % 1015,9 hPa 0,0 l/m 0,0 km/h (0 Bft) N-NO 16 0 min 0,000 mm 0,0 UV-I 12 W/m 10,6 C 10,9 C 1,6 km/h (1 Bft) 94,00 %
20.09.2016 08:06 10,9 C 98 % 1016,0 hPa 0,2 l/m 0,0 km/h (0 Bft) N-NO 16 0 min 0,000 mm 0,0 UV-I 13 W/m 10,6 C 10,9 C 0,0 km/h (0 Bft) 95,74 %
20.09.2016 08:08 10,9 C 98 % 1016,0 hPa 0,0 l/m 0,0 km/h (0 Bft) N-NO 16 0 min 0,000 mm 0,0 UV-I 14 W/m 10,6 C 10,9 C 0,0 km/h (0 Bft) 98,00 %
20.09.2016 08:10 10,9 C 98 % 1016,0 hPa 0,0 l/m 0,0 km/h (0 Bft) N-NO 16 0 min 0,000 mm 0,0 UV-I 17 W/m 10,6 C 10,9 C 1,6 km/h (1 Bft) 100,00 %
20.09.2016 08:12 10,8 C 98 % 1016,0 hPa 0,0 l/m 0,0 km/h (0 Bft) N-NO 16 0 min 0,000 mm 0,0 UV-I 18 W/m 10,5 C 10,8 C 0,0 km/h (0 Bft) 97,87 %
20.09.2016 08:14 10,9 C 98 % 1016,0 hPa 0,0 l/m 0,4 km/h (0 Bft) N-NO 16 0 min 0,000 mm 0,0 UV-I 19 W/m 10,6 C 10,9 C 3,2 km/h (1 Bft) 100,00 %
20.09.2016 08:16 10,9 C 98 % 1016,0 hPa 0,0 l/m 1,1 km/h (1 Bft) N-NO 16 0 min 0,000 mm 0,0 UV-I 21 W/m 10,6 C 10,9 C 1,6 km/h (1 Bft) 100,00 %
20.09.2016 08:18 11,0 C 98 % 1016,1 hPa 0,0 l/m 0,3 km/h (0 Bft) N-NO 16 0 min 0,000 mm 0,0 UV-I 21 W/m 10,7 C 11,0 C 1,6 km/h (1 Bft) 100,00 %
20.09.2016 08:20 11,0 C 98 % 1016,1 hPa 0,0 l/m 0,3 km/h (0 Bft) N-NO 16 0 min 0,000 mm 0,0 UV-I 21 W/m 10,7 C 11,0 C 1,6 km/h (1 Bft) 98,00 %
20.09.2016 08:22 11,0 C 98 % 1016,1 hPa 0,0 l/m 1,5 km/h (1 Bft) N-NO 16 0 min 0,000 mm 0,0 UV-I 19 W/m 10,7 C 11,0 C 3,2 km/h (1 Bft) 100,00 %
20.09.2016 08:24 11,1 C 98 % 1016,1 hPa 0,0 l/m 2,1 km/h (1 Bft) N-NO 16 0 min 0,000 mm 0,0 UV-I 16 W/m 10,8 C 11,1 C 3,2 km/h (1 Bft) 100,00 %
20.09.2016 08:26 11,0 C 98 % 1016,1 hPa 0,0 l/m 2,0 km/h (1 Bft) N-NO 16 0 min 0,000 mm 0,0 UV-I 16 W/m 10,7 C 11,0 C 3,2 km/h (1 Bft) 98,00 %
20.09.2016 08:28 10,9 C 97 % 1016,1 hPa 0,2 l/m 2,0 km/h (1 Bft) N-NO 16 0 min 0,000 mm 0,0 UV-I 19 W/m 10,4 C 10,9 C 3,2 km/h (1 Bft) 100,00 %
20.09.2016 08:30 10,9 C 97 % 1016,1 hPa 0,0 l/m 3,2 km/h (1 Bft) W 269 0 min 0,000 mm 0,0 UV-I 24 W/m 10,4 C 10,9 C 4,8 km/h (1 Bft) 100,00 %
20.09.2016 08:32 10,9 C 97 % 1016,1 hPa 0,0 l/m 2,2 km/h (1 Bft) W-SW 250 0 min 0,000 mm 0,0 UV-I 27 W/m 10,4 C 10,9 C 4,8 km/h (1 Bft) 100,00 %
20.09.2016 08:34 10,9 C 97 % 1016,1 hPa 0,0 l/m 4,2 km/h (1 Bft) S 186 0 min 0,000 mm 0,0 UV-I 30 W/m 10,4 C 10,9 C 6,4 km/h (2 Bft) 100,00 %
20.09.2016 08:36 10,9 C 97 % 1016,1 hPa 0,0 l/m 4,2 km/h (1 Bft) S 186 0 min 0,000 mm 0,0 UV-I 35 W/m 10,4 C 10,9 C 6,4 km/h (2 Bft) 97,56 %
20.09.2016 08:38 10,9 C 97 % 1016,1 hPa 0,0 l/m 2,7 km/h (1 Bft) S 184 0 min 0,000 mm 0,0 UV-I 40 W/m 10,4 C 10,9 C 4,8 km/h (1 Bft) 100,00 %
20.09.2016 08:40 10,9 C 97 % 1016,1 hPa 0,0 l/m 2,9 km/h (1 Bft) S 184 0 min 0,000 mm 0,0 UV-I 42 W/m 10,4 C 10,9 C 4,8 km/h (1 Bft) 100,00 %
20.09.2016 08:42 10,9 C 97 % 1016,1 hPa 0,0 l/m 3,2 km/h (1 Bft) S 184 0 min 0,000 mm 0,0 UV-I 42 W/m 10,4 C 10,9 C 4,8 km/h (1 Bft) 97,87 %
20.09.2016 08:44 11,0 C 97 % 1016,1 hPa 0,0 l/m 1,3 km/h (1 Bft) S 184 0 min 0,000 mm 0,0 UV-I 43 W/m 10,5 C 11,0 C 3,2 km/h (1 Bft) 100,00 %
20.09.2016 08:46 11,1 C 97 % 1016,1 hPa 0,0 l/m 1,4 km/h (1 Bft) S 184 0 min 0,000 mm 0,0 UV-I 46 W/m 10,6 C 11,1 C 3,2 km/h (1 Bft) 97,92 %
20.09.2016 08:48 11,0 C 97 % 1016,1 hPa 0,0 l/m 1,2 km/h (1 Bft) S 184 0 min 0,000 mm 0,0 UV-I 48 W/m 10,5 C 11,0 C 3,2 km/h (1 Bft) 100,00 %
20.09.2016 08:50 11,1 C 97 % 1016,1 hPa 0,0 l/m 2,2 km/h (1 Bft) S 184 0 min 0,000 mm 0,0 UV-I 49 W/m 10,6 C 11,1 C 4,8 km/h (1 Bft) 98,00 %
20.09.2016 08:52 11,1 C 97 % 1016,1 hPa 0,0 l/m 0,8 km/h (0 Bft) S 184 0 min 0,000 mm 0,0 UV-I 51 W/m 10,6 C 11,1 C 1,6 km/h (1 Bft) 100,00 %
20.09.2016 08:54 11,2 C 97 % 1016,1 hPa 0,0 l/m 0,2 km/h (0 Bft) S 184 0 min 0,000 mm 0,0 UV-I 51 W/m 10,7 C 11,2 C 1,6 km/h (1 Bft) 97,87 %
20.09.2016 08:56 11,2 C 97 % 1016,2 hPa 0,0 l/m 1,7 km/h (1 Bft) S 184 0 min 0,000 mm 0,0 UV-I 51 W/m 10,7 C 11,2 C 3,2 km/h (1 Bft) 100,00 %
20.09.2016 08:58 11,2 C 97 % 1016,2 hPa 0,2 l/m 1,3 km/h (1 Bft) S 184 0 min 0,000 mm 0,0 UV-I 52 W/m 10,7 C 11,2 C 3,2 km/h (1 Bft) 100,00 %
20.09.2016 09:00 11,2 C 97 % 1016,2 hPa 0,0 l/m 1,6 km/h (1 Bft) S 184 0 min 0,025 mm 0,0 UV-I 53 W/m 10,7 C 11,2 C 3,2 km/h (1 Bft) 100,00 %
20.09.2016 09:02 11,3 C 97 % 1016,2 hPa 0,0 l/m 0,8 km/h (0 Bft) S 184 0 min 0,000 mm 0,0 UV-I 56 W/m 10,8 C 11,3 C 1,6 km/h (1 Bft) 95,74 %
20.09.2016 09:04 11,3 C 97 % 1016,2 hPa 0,0 l/m 1,3 km/h (1 Bft) S 184 0 min 0,000 mm 0,0 UV-I 61 W/m 10,8 C 11,3 C 3,2 km/h (1 Bft) 97,87 %
20.09.2016 09:06 11,3 C 97 % 1016,2 hPa 0,0 l/m 0,6 km/h (0 Bft) S 184 0 min 0,000 mm 0,0 UV-I 63 W/m 10,8 C 11,3 C 1,6 km/h (1 Bft) 100,00 %
20.09.2016 09:08 11,3 C 97 % 1016,2 hPa 0,0 l/m 1,6 km/h (1 Bft) S 184 0 min 0,000 mm 0,0 UV-I 66 W/m 10,8 C 11,3 C 3,2 km/h (1 Bft) 97,87 %
20.09.2016 09:10 11,3 C 97 % 1016,2 hPa 0,0 l/m 0,6 km/h (0 Bft) S 184 0 min 0,000 mm 0,0 UV-I 67 W/m 10,8 C 11,3 C 1,6 km/h (1 Bft) 97,87 %
20.09.2016 09:12 11,3 C 97 % 1016,2 hPa 0,0 l/m 1,8 km/h (1 Bft) S 184 0 min 0,000 mm 0,0 UV-I 62 W/m 10,8 C 11,3 C 3,2 km/h (1 Bft) 100,00 %
20.09.2016 09:14 11,3 C 97 % 1016,2 hPa 0,0 l/m 0,9 km/h (0 Bft) S 184 0 min 0,000 mm 0,0 UV-I 56 W/m 10,8 C 11,3 C 3,2 km/h (1 Bft) 97,37 %
20.09.2016 09:16 11,3 C 97 % 1016,1 hPa 0,0 l/m 2,2 km/h (1 Bft) S 184 0 min 0,000 mm 0,0 UV-I 53 W/m 10,8 C 11,3 C 4,8 km/h (1 Bft) 97,87 %
20.09.2016 09:18 11,3 C 97 % 1016,1 hPa 0,0 l/m 1,0 km/h (0 Bft) S 184 0 min 0,000 mm 0,0 UV-I 53 W/m 10,8 C 11,3 C 3,2 km/h (1 Bft) 97,87 %
20.09.2016 09:20 11,3 C 97 % 1016,1 hPa 0,0 l/m 3,0 km/h (1 Bft) S 184 0 min 0,000 mm 0,0 UV-I 53 W/m 10,8 C 11,3 C 4,8 km/h (1 Bft) 97,87 %
20.09.2016 09:22 11,4 C 97 % 1016,2 hPa 0,0 l/m 1,9 km/h (1 Bft) S 184 0 min 0,000 mm 0,0 UV-I 53 W/m 10,9 C 11,4 C 4,8 km/h (1 Bft) 100,00 %
20.09.2016 09:24 11,4 C 97 % 1016,2 hPa 0,0 l/m 2,0 km/h (1 Bft) S 184 0 min 0,000 mm 0,0 UV-I 54 W/m 10,9 C 11,4 C 3,2 km/h (1 Bft) 97,87 %
20.09.2016 09:26 11,4 C 97 % 1016,2 hPa 0,0 l/m 1,0 km/h (0 Bft) S 184 0 min 0,000 mm 0,0 UV-I 54 W/m 10,9 C 11,4 C 4,8 km/h (1 Bft) 100,00 %
20.09.2016 09:28 11,4 C 97 % 1016,2 hPa 0,0 l/m 1,5 km/h (1 Bft) S 184 0 min 0,000 mm 0,0 UV-I 54 W/m 10,9 C 11,4 C 3,2 km/h (1 Bft) 97,87 %
20.09.2016 09:30 11,4 C 97 % 1016,3 hPa 0,0 l/m 2,3 km/h (1 Bft) S 184 0 min 0,000 mm 0,0 UV-I 54 W/m 10,9 C 11,4 C 3,2 km/h (1 Bft) 100,00 %
20.09.2016 09:32 11,4 C 97 % 1016,3 hPa 0,0 l/m 3,9 km/h (1 Bft) S 184 0 min 0,000 mm 0,0 UV-I 57 W/m 10,9 C 11,4 C 4,8 km/h (1 Bft) 97,87 %
20.09.2016 09:34 11,3 C 97 % 1016,4 hPa 0,0 l/m 3,5 km/h (1 Bft) S 184 0 min 0,000 mm 0,0 UV-I 58 W/m 10,8 C 11,3 C 4,8 km/h (1 Bft) 95,74 %
20.09.2016 09:36 11,3 C 97 % 1016,4 hPa 0,0 l/m 2,2 km/h (1 Bft) S 184 0 min 0,000 mm 0,0 UV-I 58 W/m 10,8 C 11,3 C 3,2 km/h (1 Bft) 97,87 %
20.09.2016 09:38 11,4 C 97 % 1016,4 hPa 0,0 l/m 1,5 km/h (1 Bft) S 184 0 min 0,000 mm 0,0 UV-I 56 W/m 10,9 C 11,4 C 3,2 km/h (1 Bft) 95,74 %
20.09.2016 09:40 11,4 C 97 % 1016,4 hPa 0,0 l/m 1,3 km/h (1 Bft) S 184 0 min 0,000 mm 0,0 UV-I 54 W/m 10,9 C 11,4 C 3,2 km/h (1 Bft) 97,87 %
20.09.2016 09:42 11,4 C 97 % 1016,5 hPa 0,0 l/m 0,6 km/h (0 Bft) S 184 0 min 0,000 mm 0,0 UV-I 54 W/m 10,9 C 11,4 C 1,6 km/h (1 Bft) 97,87 %
20.09.2016 09:44 11,3 C 96 % 1016,5 hPa 0,0 l/m 0,1 km/h (0 Bft) S 184 0 min 0,000 mm 0,0 UV-I 54 W/m 10,7 C 11,3 C 1,6 km/h (1 Bft) 91,49 %
20.09.2016 09:46 11,3 C 96 % 1016,5 hPa 0,0 l/m 0,7 km/h (0 Bft) S 184 0 min 0,000 mm 0,0 UV-I 53 W/m 10,7 C 11,3 C 1,6 km/h (1 Bft) 97,87 %
20.09.2016 09:48 11,4 C 97 % 1016,5 hPa 0,0 l/m 1,5 km/h (1 Bft) S 184 0 min 0,000 mm 0,0 UV-I 54 W/m 10,9 C 11,4 C 3,2 km/h (1 Bft) 97,87 %
20.09.2016 09:50 11,4 C 96 % 1016,6 hPa 0,0 l/m 1,0 km/h (0 Bft) S 184 0 min 0,000 mm 0,0 UV-I 54 W/m 10,8 C 11,4 C 1,6 km/h (1 Bft) 94,00 %
20.09.2016 09:52 11,4 C 96 % 1016,6 hPa 0,0 l/m 1,4 km/h (1 Bft) S 184 0 min 0,000 mm 0,0 UV-I 56 W/m 10,8 C 11,4 C 3,2 km/h (1 Bft) 97,87 %
20.09.2016 09:54 11,4 C 96 % 1016,6 hPa 0,0 l/m 1,6 km/h (1 Bft) S 184 0 min 0,000 mm 0,0 UV-I 58 W/m 10,8 C 11,4 C 3,2 km/h (1 Bft) 93,62 %
20.09.2016 09:56 11,4 C 96 % 1016,6 hPa 0,0 l/m 0,3 km/h (0 Bft) S 184 0 min 0,000 mm 0,0 UV-I 61 W/m 10,8 C 11,4 C 1,6 km/h (1 Bft) 93,62 %
20.09.2016 09:58 11,5 C 96 % 1016,6 hPa 0,0 l/m 1,0 km/h (0 Bft) S 184 0 min 0,000 mm 0,0 UV-I 62 W/m 10,9 C 11,5 C 3,2 km/h (1 Bft) 94,74 %
20.09.2016 10:00 11,5 C 96 % 1016,6 hPa 0,0 l/m 2,2 km/h (1 Bft) S 184 0 min 0,026 mm 0,0 UV-I 62 W/m 10,9 C 11,5 C 3,2 km/h (1 Bft) 95,74 %
20.09.2016 10:02 11,6 C 96 % 1016,6 hPa 0,0 l/m 2,3 km/h (1 Bft) S 184 0 min 0,000 mm 0,0 UV-I 60 W/m 11,0 C 11,6 C 4,8 km/h (1 Bft) 95,74 %
20.09.2016 10:04 11,6 C 96 % 1016,6 hPa 0,0 l/m 1,1 km/h (1 Bft) S 184 0 min 0,000 mm 0,0 UV-I 61 W/m 11,0 C 11,6 C 3,2 km/h (1 Bft) 95,74 %
20.09.2016 10:06 11,6 C 96 % 1016,6 hPa 0,0 l/m 1,8 km/h (1 Bft) S 184 0 min 0,000 mm 0,0 UV-I 65 W/m 11,0 C 11,6 C 3,2 km/h (1 Bft) 97,92 %
20.09.2016 10:08 11,7 C 96 % 1016,6 hPa 0,0 l/m 1,9 km/h (1 Bft) S 184 0 min 0,000 mm 0,0 UV-I 69 W/m 11,1 C 11,7 C 3,2 km/h (1 Bft) 97,87 %
20.09.2016 10:10 11,7 C 96 % 1016,6 hPa 0,0 l/m 1,5 km/h (1 Bft) S 184 0 min 0,000 mm 0,0 UV-I 70 W/m 11,1 C 11,7 C 3,2 km/h (1 Bft) 95,74 %
20.09.2016 10:12 11,6 C 96 % 1016,6 hPa 0,0 l/m 0,5 km/h (0 Bft) S 184 0 min 0,000 mm 0,0 UV-I 71 W/m 11,0 C 11,6 C 1,6 km/h (1 Bft) 98,00 %
20.09.2016 10:14 11,7 C 96 % 1016,6 hPa 0,0 l/m 1,8 km/h (1 Bft) S-SO 161 0 min 0,000 mm 0,0 UV-I 73 W/m 11,1 C 11,7 C 6,4 km/h (2 Bft) 97,87 %
20.09.2016 10:16 11,7 C 95 % 1016,6 hPa 0,0 l/m 2,6 km/h (1 Bft) S-SO 159 0 min 0,000 mm 0,0 UV-I 78 W/m 10,9 C 11,7 C 6,4 km/h (2 Bft) 97,87 %
20.09.2016 10:18 11,7 C 96 % 1016,6 hPa 0,0 l/m 2,4 km/h (1 Bft) S-SO 159 0 min 0,000 mm 0,5 UV-I 86 W/m 11,1 C 11,7 C 8,0 km/h (2 Bft) 100,00 %
20.09.2016 10:20 11,7 C 96 % 1016,6 hPa 0,0 l/m 1,8 km/h (1 Bft) S-SO 159 0 min 0,000 mm 0,5 UV-I 90 W/m 11,1 C 11,7 C 3,2 km/h (1 Bft) 100,00 %
20.09.2016 10:22 11,7 C 96 % 1016,7 hPa 0,0 l/m 1,5 km/h (1 Bft) S-SO 159 0 min 0,000 mm 0,5 UV-I 90 W/m 11,1 C 11,7 C 3,2 km/h (1 Bft) 97,87 %
20.09.2016 10:24 11,7 C 96 % 1016,7 hPa 0,0 l/m 1,9 km/h (1 Bft) S-SO 159 0 min 0,000 mm 0,5 UV-I 90 W/m 11,1 C 11,7 C 6,4 km/h (2 Bft) 97,87 %
20.09.2016 10:26 11,7 C 95 % 1016,7 hPa 0,0 l/m 1,4 km/h (1 Bft) S-SO 159 0 min 0,000 mm 0,5 UV-I 94 W/m 10,9 C 11,7 C 3,2 km/h (1 Bft) 100,00 %
20.09.2016 10:28 11,8 C 95 % 1016,7 hPa 0,0 l/m 0,3 km/h (0 Bft) S-SO 159 0 min 0,000 mm 0,5 UV-I 95 W/m 11,0 C 11,8 C 1,6 km/h (1 Bft) 100,00 %
20.09.2016 10:30 11,8 C 96 % 1016,7 hPa 0,0 l/m 2,7 km/h (1 Bft) S-SO 160 0 min 0,000 mm 0,5 UV-I 91 W/m 11,2 C 11,8 C 3,2 km/h (1 Bft) 100,00 %
20.09.2016 10:32 11,8 C 96 % 1016,7 hPa 0,0 l/m 1,8 km/h (1 Bft) S-SO 160 0 min 0,000 mm 0,5 UV-I 87 W/m 11,2 C 11,8 C 3,2 km/h (1 Bft) 97,87 %
20.09.2016 10:34 11,8 C 95 % 1016,7 hPa 0,0 l/m 1,3 km/h (1 Bft) S-SO 160 0 min 0,000 mm 0,5 UV-I 84 W/m 11,0 C 11,8 C 3,2 km/h (1 Bft) 100,00 %
20.09.2016 10:36 11,8 C 96 % 1016,8 hPa 0,0 l/m 0,7 km/h (0 Bft) S-SO 160 0 min 0,000 mm 0,5 UV-I 85 W/m 11,2 C 11,8 C 1,6 km/h (1 Bft) 100,00 %
20.09.2016 10:38 11,9 C 95 % 1016,7 hPa 0,0 l/m 1,2 km/h (1 Bft) S-SO 160 0 min 0,000 mm 0,5 UV-I 88 W/m 11,1 C 11,9 C 3,2 km/h (1 Bft) 100,00 %
20.09.2016 10:40 11,9 C 96 % 1016,7 hPa 0,0 l/m 0,7 km/h (0 Bft) S-SO 160 0 min 0,000 mm 0,5 UV-I 89 W/m 11,3 C 11,9 C 3,2 km/h (1 Bft) 100,00 %
20.09.2016 10:42 11,9 C 96 % 1016,7 hPa 0,0 l/m 0,0 km/h (0 Bft) S-SO 160 0 min 0,000 mm 0,5 UV-I 91 W/m 11,3 C 11,9 C 1,6 km/h (1 Bft) 97,87 %
20.09.2016 10:44 12,1 C 96 % 1016,7 hPa 0,0 l/m 1,2 km/h (1 Bft) S-SO 160 0 min 0,000 mm 0,5 UV-I 96 W/m 11,5 C 12,1 C 3,2 km/h (1 Bft) 100,00 %
20.09.2016 10:46 12,0 C 95 % 1016,7 hPa 0,0 l/m 1,3 km/h (1 Bft) S-SO 160 0 min 0,000 mm 0,6 UV-I 102 W/m 11,2 C 12,0 C 3,2 km/h (1 Bft) 100,00 %
20.09.2016 10:48 12,1 C 95 % 1016,7 hPa 0,0 l/m 1,2 km/h (1 Bft) S-SO 160 0 min 0,000 mm 0,6 UV-I 109 W/m 11,3 C 12,1 C 3,2 km/h (1 Bft) 100,00 %
20.09.2016 10:50 12,1 C 95 % 1016,7 hPa 0,0 l/m 1,5 km/h (1 Bft) S-SO 160 0 min 0,000 mm 0,6 UV-I 114 W/m 11,3 C 12,1 C 3,2 km/h (1 Bft) 100,00 %
20.09.2016 10:52 12,1 C 94 % 1016,7 hPa 0,0 l/m 1,3 km/h (1 Bft) S-SO 160 0 min 0,000 mm 0,7 UV-I 116 W/m 11,2 C 12,1 C 3,2 km/h (1 Bft) 100,00 %
20.09.2016 10:54 12,1 C 94 % 1016,7 hPa 0,0 l/m 0,6 km/h (0 Bft) S-SO 160 0 min 0,000 mm 0,7 UV-I 119 W/m 11,2 C 12,1 C 3,2 km/h (1 Bft) 95,74 %
20.09.2016 10:56 12,1 C 94 % 1016,7 hPa 0,0 l/m 0,5 km/h (0 Bft) S-SO 160 0 min 0,000 mm 0,7 UV-I 122 W/m 11,2 C 12,1 C 1,6 km/h (1 Bft) 100,00 %
20.09.2016 10:58 12,2 C 94 % 1016,8 hPa 0,0 l/m 0,7 km/h (0 Bft) S-SO 160 0 min 0,000 mm 0,8 UV-I 127 W/m 11,3 C 12,2 C 3,2 km/h (1 Bft) 100,00 %
20.09.2016 11:00 12,1 C 93 % 1016,7 hPa 0,0 l/m 2,1 km/h (1 Bft) S-SO 160 0 min 0,051 mm 0,8 UV-I 132 W/m 11,0 C 12,1 C 3,2 km/h (1 Bft) 97,96 %
20.09.2016 11:02 12,2 C 94 % 1016,8 hPa 0,0 l/m 1,6 km/h (1 Bft) SW 215 0 min 0,000 mm 0,8 UV-I 135 W/m 11,3 C 12,2 C 4,8 km/h (1 Bft) 97,87 %
20.09.2016 11:04 12,3 C 94 % 1016,8 hPa 0,0 l/m 3,6 km/h (1 Bft) W-SW 257 0 min 0,000 mm 0,8 UV-I 137 W/m 11,4 C 12,3 C 4,8 km/h (1 Bft) 100,00 %
20.09.2016 11:05 12,3 C 94 % 1016,8 hPa 0,0 l/m 3,2 km/h (1 Bft) SW 225 0 min 0,000 mm 0,8 UV-I 137 W/m 11,4 C 12,3 C 4,8 km/h (1 Bft) 100,00 %
20.09.2016 11:10 12,3 C 93 % 1016,7 hPa 0,0 l/m 3,2 km/h (1 Bft) W-SW 247 0 min 0,000 mm 0,9 UV-I 143 W/m 11,2 C 12,3 C 6,4 km/h (2 Bft) 100,00 %
20.09.2016 11:15 12,3 C 93 % 1016,7 hPa 0,0 l/m 1,6 km/h (1 Bft) SW 225 0 min 0,000 mm 0,8 UV-I 125 W/m 11,2 C 12,3 C 3,2 km/h (1 Bft) 100,00 %
20.09.2016 11:18 12,3 C 93 % 1016,7 hPa 0,0 l/m 4,1 km/h (1 Bft) SW 229 0 min 0,000 mm 0,8 UV-I 124 W/m 11,2 C 12,3 C 6,4 km/h (2 Bft) 100,00 %
20.09.2016 11:20 12,3 C 93 % 1016,7 hPa 0,0 l/m 2,9 km/h (1 Bft) SW 229 0 min 0,000 mm 0,8 UV-I 129 W/m 11,2 C 12,3 C 4,8 km/h (1 Bft) 100,00 %
20.09.2016 11:22 12,4 C 93 % 1016,7 hPa 0,0 l/m 3,1 km/h (1 Bft) SW 236 0 min 0,000 mm 0,8 UV-I 129 W/m 11,3 C 12,4 C 4,8 km/h (1 Bft) 100,00 %
20.09.2016 11:24 12,4 C 93 % 1016,7 hPa 0,0 l/m 2,3 km/h (1 Bft) SW 236 0 min 0,000 mm 0,8 UV-I 126 W/m 11,3 C 12,4 C 4,8 km/h (1 Bft) 96,43 %
20.09.2016 11:26 12,4 C 93 % 1016,7 hPa 0,0 l/m 2,9 km/h (1 Bft) SW 236 0 min 0,000 mm 0,8 UV-I 125 W/m 11,3 C 12,4 C 4,8 km/h (1 Bft) 100,00 %
20.09.2016 11:28 12,4 C 92 % 1016,7 hPa 0,0 l/m 1,6 km/h (1 Bft) SW 236 0 min 0,000 mm 0,8 UV-I 125 W/m 11,1 C 12,4 C 3,2 km/h (1 Bft) 100,00 %
20.09.2016 11:30 12,4 C 92 % 1016,7 hPa 0,0 l/m 2,8 km/h (1 Bft) W-SW 252 0 min 0,000 mm 0,8 UV-I 127 W/m 11,1 C 12,4 C 6,4 km/h (2 Bft) 98,00 %
20.09.2016 11:32 12,4 C 93 % 1016,7 hPa 0,0 l/m 3,1 km/h (1 Bft) W-SW 252 0 min 0,000 mm 0,8 UV-I 128 W/m 11,3 C 12,4 C 6,4 km/h (2 Bft) 100,00 %
20.09.2016 11:34 12,5 C 93 % 1016,7 hPa 0,0 l/m 3,5 km/h (1 Bft) W-SW 252 0 min 0,000 mm 0,8 UV-I 130 W/m 11,4 C 12,5 C 4,8 km/h (1 Bft) 100,00 %
20.09.2016 11:36 12,5 C 93 % 1016,7 hPa 0,0 l/m 4,1 km/h (1 Bft) SW 235 0 min 0,000 mm 0,8 UV-I 132 W/m 11,4 C 12,5 C 6,4 km/h (2 Bft) 97,87 %
20.09.2016 11:38 12,4 C 92 % 1016,7 hPa 0,0 l/m 3,2 km/h (1 Bft) SW 225 0 min 0,000 mm 0,8 UV-I 132 W/m 11,1 C 12,4 C 6,4 km/h (2 Bft) 97,87 %
20.09.2016 11:40 12,4 C 92 % 1016,7 hPa 0,0 l/m 3,7 km/h (1 Bft) W-SW 243 0 min 0,000 mm 0,9 UV-I 133 W/m 11,1 C 12,4 C 6,4 km/h (2 Bft) 95,74 %
20.09.2016 11:42 12,4 C 93 % 1016,7 hPa 0,0 l/m 3,8 km/h (1 Bft) W-SW 244 0 min 0,000 mm 0,9 UV-I 136 W/m 11,3 C 12,4 C 4,8 km/h (1 Bft) 94,87 %
20.09.2016 11:44 12,6 C 93 % 1016,7 hPa 0,0 l/m 2,7 km/h (1 Bft) W-SW 252 0 min 0,000 mm 1,0 UV-I 144 W/m 11,5 C 12,6 C 6,4 km/h (2 Bft) 98,08 %
20.09.2016 11:46 12,6 C 93 % 1016,7 hPa 0,0 l/m 4,3 km/h (1 Bft) W-SW 240 0 min 0,000 mm 1,0 UV-I 151 W/m 11,5 C 12,6 C 6,4 km/h (2 Bft) 95,56 %
20.09.2016 11:48 12,7 C 94 % 1016,7 hPa 0,0 l/m 4,5 km/h (1 Bft) W-SW 252 0 min 0,000 mm 1,0 UV-I 154 W/m 11,8 C 12,7 C 6,4 km/h (2 Bft) 97,87 %
20.09.2016 11:50 12,6 C 93 % 1016,6 hPa 0,0 l/m 5,0 km/h (1 Bft) W-SW 254 0 min 0,000 mm 1,1 UV-I 159 W/m 11,5 C 12,6 C 8,0 km/h (2 Bft) 97,87 %
20.09.2016 11:52 12,6 C 93 % 1016,7 hPa 0,0 l/m 5,7 km/h (1 Bft) W-SW 250 0 min 0,000 mm 1,1 UV-I 171 W/m 11,5 C 12,6 C 8,0 km/h (2 Bft) 97,87 %
20.09.2016 11:54 12,7 C 93 % 1016,6 hPa 0,0 l/m 5,6 km/h (1 Bft) W-SW 240 0 min 0,000 mm 1,2 UV-I 183 W/m 11,6 C 12,7 C 8,0 km/h (2 Bft) 98,00 %
20.09.2016 11:56 12,8 C 93 % 1016,6 hPa 0,0 l/m 5,3 km/h (1 Bft) W-SW 253 0 min 0,000 mm 1,3 UV-I 196 W/m 11,7 C 12,8 C 9,7 km/h (2 Bft) 97,56 %
20.09.2016 11:58 12,8 C 93 % 1016,7 hPa 0,0 l/m 4,9 km/h (1 Bft) SW 228 0 min 0,000 mm 1,3 UV-I 206 W/m 11,7 C 12,8 C 9,7 km/h (2 Bft) 98,00 %
20.09.2016 12:00 12,8 C 92 % 1016,7 hPa 0,0 l/m 4,6 km/h (1 Bft) S-SW 194 0 min 0,076 mm 1,4 UV-I 212 W/m 11,5 C 12,8 C 6,4 km/h (2 Bft) 97,73 %
20.09.2016 12:02 12,7 C 92 % 1016,6 hPa 0,0 l/m 6,6 km/h (2 Bft) SW 221 0 min 0,000 mm 1,4 UV-I 214 W/m 11,4 C 12,6 C 8,0 km/h (2 Bft) 96,00 %
20.09.2016 12:04 12,7 C 91 % 1016,6 hPa 0,0 l/m 6,4 km/h (2 Bft) W-SW 253 0 min 0,000 mm 1,4 UV-I 217 W/m 11,3 C 12,7 C 9,7 km/h (2 Bft) 95,74 %
20.09.2016 12:06 12,7 C 92 % 1016,6 hPa 0,0 l/m 7,5 km/h (2 Bft) W-SW 251 0 min 0,000 mm 1,4 UV-I 220 W/m 11,4 C 12,0 C 11,3 km/h (2 Bft) 95,74 %
20.09.2016 12:08 12,7 C 92 % 1016,6 hPa 0,0 l/m 5,6 km/h (1 Bft) W 274 0 min 0,000 mm 1,4 UV-I 224 W/m 11,4 C 12,7 C 8,0 km/h (2 Bft) 97,87 %
20.09.2016 12:10 12,8 C 92 % 1016,6 hPa 0,0 l/m 3,4 km/h (1 Bft) SW 234 0 min 0,000 mm 1,4 UV-I 223 W/m 11,5 C 12,8 C 6,4 km/h (2 Bft) 97,87 %
20.09.2016 12:12 12,8 C 92 % 1016,5 hPa 0,0 l/m 5,6 km/h (1 Bft) W 265 0 min 0,000 mm 1,4 UV-I 222 W/m 11,5 C 12,8 C 8,0 km/h (2 Bft) 97,87 %
20.09.2016 12:14 12,7 C 92 % 1016,5 hPa 0,0 l/m 7,9 km/h (2 Bft) SW 228 0 min 0,000 mm 1,4 UV-I 224 W/m 11,4 C 11,7 C 9,7 km/h (2 Bft) 100,00 %
20.09.2016 12:16 12,8 C 92 % 1016,5 hPa 0,0 l/m 6,7 km/h (2 Bft) SW 219 0 min 0,000 mm 1,5 UV-I 231 W/m 11,5 C 12,6 C 11,3 km/h (2 Bft) 100,00 %
20.09.2016 12:18 12,8 C 92 % 1016,5 hPa 0,0 l/m 4,9 km/h (1 Bft) SW 225 0 min 0,000 mm 1,5 UV-I 244 W/m 11,5 C 12,8 C 8,0 km/h (2 Bft) 100,00 %
20.09.2016 12:20 12,8 C 92 % 1016,5 hPa 0,0 l/m 5,3 km/h (1 Bft) SW 219 0 min 0,000 mm 1,6 UV-I 262 W/m 11,5 C 12,8 C 8,0 km/h (2 Bft) 100,00 %
20.09.2016 12:22 12,8 C 91 % 1016,4 hPa 0,0 l/m 6,8 km/h (2 Bft) S-SW 196 0 min 0,000 mm 1,7 UV-I 271 W/m 11,4 C 12,6 C 9,7 km/h (2 Bft) 100,00 %
20.09.2016 12:24 12,8 C 91 % 1016,4 hPa 0,0 l/m 4,2 km/h (1 Bft) SW 218 0 min 0,000 mm 1,6 UV-I 270 W/m 11,4 C 12,8 C 8,0 km/h (2 Bft) 100,00 %
20.09.2016 12:26 12,8 C 91 % 1016,4 hPa 0,0 l/m 6,0 km/h (2 Bft) S-SW 202 0 min 0,000 mm 1,6 UV-I 258 W/m 11,4 C 12,8 C 9,7 km/h (2 Bft) 100,00 %
20.09.2016 12:28 12,8 C 90 % 1016,4 hPa 0,0 l/m 5,5 km/h (1 Bft) SW 214 0 min 0,000 mm 1,5 UV-I 249 W/m 11,2 C 12,8 C 8,0 km/h (2 Bft) 100,00 %
20.09.2016 12:30 12,8 C 90 % 1016,4 hPa 0,0 l/m 5,8 km/h (2 Bft) SW 232 0 min 0,000 mm 1,5 UV-I 250 W/m 11,2 C 12,8 C 9,7 km/h (2 Bft) 100,00 %
20.09.2016 12:32 12,9 C 91 % 1016,4 hPa 0,0 l/m 6,6 km/h (2 Bft) W-SW 242 0 min 0,000 mm 1,6 UV-I 256 W/m 11,5 C 12,8 C 9,7 km/h (2 Bft) 100,00 %
20.09.2016 12:34 13,0 C 91 % 1016,4 hPa 0,0 l/m 7,4 km/h (2 Bft) W-SW 253 0 min 0,000 mm 1,6 UV-I 262 W/m 11,6 C 12,4 C 11,3 km/h (2 Bft) 98,00 %
20.09.2016 12:36 13,1 C 91 % 1016,4 hPa 0,0 l/m 6,4 km/h (2 Bft) W-SW 255 0 min 0,000 mm 1,7 UV-I 274 W/m 11,7 C 13,1 C 11,3 km/h (2 Bft) 96,00 %
20.09.2016 12:38 13,1 C 90 % 1016,4 hPa 0,0 l/m 4,5 km/h (1 Bft) SW 234 0 min 0,000 mm 1,8 UV-I 287 W/m 11,5 C 13,1 C 6,4 km/h (2 Bft) 100,00 %
20.09.2016 12:40 13,1 C 90 % 1016,4 hPa 0,0 l/m 6,1 km/h (2 Bft) SW 219 0 min 0,000 mm 1,8 UV-I 294 W/m 11,5 C 13,1 C 11,3 km/h (2 Bft) 100,00 %
20.09.2016 12:42 13,1 C 91 % 1016,4 hPa 0,0 l/m 5,2 km/h (1 Bft) W 260 0 min 0,000 mm 1,8 UV-I 293 W/m 11,7 C 13,1 C 6,4 km/h (2 Bft) 97,37 %
20.09.2016 12:44 13,2 C 91 % 1016,4 hPa 0,0 l/m 5,9 km/h (2 Bft) W 265 0 min 0,000 mm 1,8 UV-I 294 W/m 11,8 C 13,2 C 9,7 km/h (2 Bft) 100,00 %
20.09.2016 12:46 13,3 C 90 % 1016,4 hPa 0,0 l/m 6,5 km/h (2 Bft) SW 221 0 min 0,000 mm 1,8 UV-I 292 W/m 11,7 C 13,3 C 9,7 km/h (2 Bft) 100,00 %
20.09.2016 12:48 13,3 C 89 % 1016,4 hPa 0,0 l/m 5,7 km/h (1 Bft) W 270 0 min 0,000 mm 1,9 UV-I 294 W/m 11,5 C 13,3 C 11,3 km/h (2 Bft) 100,00 %
20.09.2016 12:50 13,3 C 90 % 1016,4 hPa 0,0 l/m 6,3 km/h (2 Bft) S-SW 195 0 min 0,000 mm 1,9 UV-I 294 W/m 11,7 C 13,3 C 9,7 km/h (2 Bft) 100,00 %
20.09.2016 12:52 13,3 C 89 % 1016,4 hPa 0,0 l/m 6,7 km/h (2 Bft) S-SW 195 0 min 0,000 mm 1,9 UV-I 298 W/m 11,5 C 13,1 C 11,3 km/h (2 Bft) 100,00 %
20.09.2016 12:54 13,3 C 88 % 1016,4 hPa 0,0 l/m 5,8 km/h (2 Bft) SW 231 0 min 0,000 mm 1,9 UV-I 302 W/m 11,4 C 13,3 C 8,0 km/h (2 Bft) 100,00 %
20.09.2016 12:56 13,3 C 88 % 1016,4 hPa 0,0 l/m 3,3 km/h (1 Bft) W 267 0 min 0,000 mm 1,8 UV-I 284 W/m 11,4 C 13,3 C 6,4 km/h (2 Bft) 98,11 %
20.09.2016 12:58 13,4 C 89 % 1016,4 hPa 0,0 l/m 4,3 km/h (1 Bft) SW 232 0 min 0,000 mm 1,7 UV-I 267 W/m 11,6 C 13,4 C 6,4 km/h (2 Bft) 100,00 %
20.09.2016 13:00 13,6 C 89 % 1016,4 hPa 0,0 l/m 5,2 km/h (1 Bft) S-SW 205 0 min 0,127 mm 1,7 UV-I 265 W/m 11,8 C 13,6 C 8,0 km/h (2 Bft) 100,00 %
20.09.2016 13:02 13,6 C 88 % 1016,4 hPa 0,0 l/m 5,7 km/h (1 Bft) SW 227 0 min 0,000 mm 1,7 UV-I 272 W/m 11,6 C 13,6 C 9,7 km/h (2 Bft) 100,00 %
20.09.2016 13:04 13,5 C 87 % 1016,4 hPa 0,0 l/m 6,3 km/h (2 Bft) SW 220 0 min 0,000 mm 1,7 UV-I 277 W/m 11,4 C 13,5 C 8,0 km/h (2 Bft) 100,00 %
20.09.2016 13:06 13,4 C 87 % 1016,3 hPa 0,0 l/m 6,3 km/h (2 Bft) SW 215 0 min 0,000 mm 1,7 UV-I 276 W/m 11,3 C 13,4 C 9,7 km/h (2 Bft) 97,87 %
20.09.2016 13:08 13,5 C 87 % 1016,3 hPa 0,0 l/m 5,6 km/h (1 Bft) W-SW 237 0 min 0,000 mm 1,6 UV-I 267 W/m 11,4 C 13,5 C 11,3 km/h (2 Bft) 100,00 %
20.09.2016 13:10 13,4 C 88 % 1016,3 hPa 0,0 l/m 6,2 km/h (2 Bft) W-SW 254 0 min 0,000 mm 1,6 UV-I 262 W/m 11,5 C 13,4 C 9,7 km/h (2 Bft) 100,00 %
20.09.2016 13:12 13,5 C 87 % 1016,3 hPa 0,0 l/m 5,1 km/h (1 Bft) SW 230 0 min 0,000 mm 1,7 UV-I 268 W/m 11,4 C 13,5 C 8,0 km/h (2 Bft) 97,56 %
20.09.2016 13:14 13,5 C 87 % 1016,3 hPa 0,0 l/m 5,9 km/h (2 Bft) S 190 0 min 0,000 mm 1,7 UV-I 272 W/m 11,4 C 13,5 C 9,7 km/h (2 Bft) 100,00 %
20.09.2016 13:16 13,4 C 86 % 1016,3 hPa 0,0 l/m 4,0 km/h (1 Bft) S-SW 200 0 min 0,000 mm 1,7 UV-I 269 W/m 11,1 C 13,4 C 6,4 km/h (2 Bft) 100,00 %
20.09.2016 13:18 13,6 C 87 % 1016,3 hPa 0,0 l/m 4,3 km/h (1 Bft) SW 214 0 min 0,000 mm 1,6 UV-I 257 W/m 11,5 C 13,6 C 9,7 km/h (2 Bft) 100,00 %
20.09.2016 13:20 13,6 C 86 % 1016,3 hPa 0,0 l/m 6,7 km/h (2 Bft) SW 215 0 min 0,000 mm 1,5 UV-I 244 W/m 11,3 C 13,4 C 9,7 km/h (2 Bft) 100,00 %
20.09.2016 13:22 13,6 C 86 % 1016,3 hPa 0,0 l/m 3,1 km/h (1 Bft) SW 233 0 min 0,000 mm 1,5 UV-I 235 W/m 11,3 C 13,6 C 6,4 km/h (2 Bft) 100,00 %
20.09.2016 13:24 13,6 C 85 % 1016,3 hPa 0,0 l/m 4,2 km/h (1 Bft) SW 225 0 min 0,000 mm 1,5 UV-I 236 W/m 11,1 C 13,6 C 6,4 km/h (2 Bft) 100,00 %
20.09.2016 13:26 13,7 C 86 % 1016,3 hPa 0,0 l/m 5,3 km/h (1 Bft) S 184 0 min 0,000 mm 1,5 UV-I 245 W/m 11,4 C 13,7 C 8,0 km/h (2 Bft) 100,00 %
20.09.2016 13:28 13,7 C 86 % 1016,3 hPa 0,0 l/m 4,8 km/h (1 Bft) SW 218 0 min 0,000 mm 1,6 UV-I 253 W/m 11,4 C 13,7 C 11,3 km/h (2 Bft) 100,00 %
20.09.2016 13:30 13,7 C 85 % 1016,3 hPa 0,0 l/m 6,7 km/h (2 Bft) SW 232 0 min 0,000 mm 1,5 UV-I 247 W/m 11,2 C 13,5 C 11,3 km/h (2 Bft) 98,11 %
20.09.2016 13:32 13,6 C 85 % 1016,3 hPa 0,0 l/m 5,7 km/h (1 Bft) SW 232 0 min 0,000 mm 1,4 UV-I 236 W/m 11,1 C 13,6 C 9,7 km/h (2 Bft) 100,00 %
20.09.2016 13:34 13,5 C 84 % 1016,2 hPa 0,0 l/m 6,0 km/h (2 Bft) W-SW 254 0 min 0,000 mm 1,4 UV-I 223 W/m 10,8 C 13,5 C 8,0 km/h (2 Bft) 100,00 %
20.09.2016 13:36 13,5 C 85 % 1016,2 hPa 0,0 l/m 3,5 km/h (1 Bft) SW 236 0 min 0,000 mm 1,3 UV-I 211 W/m 11,0 C 13,5 C 6,4 km/h (2 Bft) 97,56 %
20.09.2016 13:38 13,5 C 85 % 1016,2 hPa 0,0 l/m 4,9 km/h (1 Bft) SW 227 0 min 0,000 mm 1,3 UV-I 205 W/m 11,0 C 13,5 C 9,7 km/h (2 Bft) 97,87 %
20.09.2016 13:40 13,6 C 85 % 1016,2 hPa 0,0 l/m 4,4 km/h (1 Bft) S 188 0 min 0,000 mm 1,3 UV-I 205 W/m 11,1 C 13,6 C 9,7 km/h (2 Bft) 98,00 %
20.09.2016 13:42 13,6 C 85 % 1016,2 hPa 0,0 l/m 5,9 km/h (2 Bft) S-SW 197 0 min 0,000 mm 1,3 UV-I 210 W/m 11,1 C 13,6 C 9,7 km/h (2 Bft) 97,44 %
20.09.2016 13:44 13,5 C 84 % 1016,2 hPa 0,0 l/m 4,3 km/h (1 Bft) S-SW 197 0 min 0,000 mm 1,3 UV-I 215 W/m 10,8 C 13,5 C 6,4 km/h (2 Bft) 98,21 %
20.09.2016 13:46 13,6 C 86 % 1016,2 hPa 0,0 l/m 5,5 km/h (1 Bft) S 169 0 min 0,000 mm 1,3 UV-I 217 W/m 11,3 C 13,6 C 9,7 km/h (2 Bft) 95,74 %
20.09.2016 13:48 13,6 C 83 % 1016,2 hPa 0,0 l/m 2,9 km/h (1 Bft) S 184 0 min 0,000 mm 1,3 UV-I 219 W/m 10,8 C 13,6 C 4,8 km/h (1 Bft) 97,87 %
20.09.2016 13:50 13,7 C 85 % 1016,2 hPa 0,0 l/m 3,9 km/h (1 Bft) S-SW 206 0 min 0,000 mm 1,4 UV-I 227 W/m 11,2 C 13,7 C 6,4 km/h (2 Bft) 97,73 %
20.09.2016 13:52 13,8 C 83 % 1016,2 hPa 0,0 l/m 2,6 km/h (1 Bft) S 185 0 min 0,000 mm 1,4 UV-I 236 W/m 11,0 C 13,8 C 4,8 km/h (1 Bft) 97,37 %
20.09.2016 13:54 13,8 C 84 % 1016,1 hPa 0,0 l/m 4,5 km/h (1 Bft) SW 236 0 min 0,000 mm 1,5 UV-I 240 W/m 11,1 C 13,8 C 8,0 km/h (2 Bft) 96,43 %
20.09.2016 13:56 13,9 C 84 % 1016,1 hPa 0,0 l/m 5,0 km/h (1 Bft) W-SW 239 0 min 0,000 mm 1,5 UV-I 245 W/m 11,2 C 13,9 C 8,0 km/h (2 Bft) 97,37 %
20.09.2016 13:58 13,9 C 83 % 1016,1 hPa 0,0 l/m 4,2 km/h (1 Bft) S-SW 211 0 min 0,000 mm 1,6 UV-I 255 W/m 11,1 C 13,9 C 9,7 km/h (2 Bft) 98,11 %
20.09.2016 14:00 13,8 C 81 % 1016,1 hPa 0,0 l/m 5,2 km/h (1 Bft) W-SW 240 0 min 0,127 mm 1,6 UV-I 261 W/m 10,6 C 13,8 C 8,0 km/h (2 Bft) 94,00 %
20.09.2016 14:02 13,8 C 82 % 1016,1 hPa 0,0 l/m 7,1 km/h (2 Bft) SW 234 0 min 0,000 mm 1,6 UV-I 259 W/m 10,8 C 13,4 C 12,9 km/h (3 Bft) 97,87 %
20.09.2016 14:04 13,8 C 82 % 1016,0 hPa 0,0 l/m 5,2 km/h (1 Bft) W-SW 254 0 min 0,000 mm 1,5 UV-I 246 W/m 10,8 C 13,8 C 9,7 km/h (2 Bft) 98,00 %
20.09.2016 14:06 13,8 C 82 % 1016,0 hPa 0,0 l/m 5,4 km/h (1 Bft) W-SW 248 0 min 0,000 mm 1,4 UV-I 228 W/m 10,8 C 13,8 C 11,3 km/h (2 Bft) 95,74 %
20.09.2016 14:08 13,8 C 81 % 1016,0 hPa 0,0 l/m 6,7 km/h (2 Bft) W-SW 248 0 min 0,000 mm 1,3 UV-I 216 W/m 10,6 C 13,6 C 11,3 km/h (2 Bft) 95,74 %
20.09.2016 14:10 13,8 C 83 % 1015,9 hPa 0,0 l/m 6,9 km/h (2 Bft) SW 222 0 min 0,000 mm 1,3 UV-I 208 W/m 11,0 C 13,5 C 9,7 km/h (2 Bft) 100,00 %
20.09.2016 14:12 13,8 C 83 % 1015,9 hPa 0,0 l/m 5,0 km/h (1 Bft) S-SW 204 0 min 0,000 mm 1,2 UV-I 208 W/m 11,0 C 13,8 C 8,0 km/h (2 Bft) 98,00 %
20.09.2016 14:14 13,9 C 82 % 1016,0 hPa 0,0 l/m 4,6 km/h (1 Bft) SW 223 0 min 0,000 mm 1,3 UV-I 213 W/m 10,9 C 13,9 C 9,7 km/h (2 Bft) 100,00 %
20.09.2016 14:16 13,8 C 82 % 1015,9 hPa 0,0 l/m 8,1 km/h (2 Bft) SW 219 0 min 0,000 mm 1,3 UV-I 217 W/m 10,8 C 12,8 C 12,9 km/h (3 Bft) 97,87 %
20.09.2016 14:18 13,8 C 83 % 1015,9 hPa 0,0 l/m 6,3 km/h (2 Bft) S 177 0 min 0,000 mm 1,3 UV-I 221 W/m 11,0 C 13,8 C 11,3 km/h (2 Bft) 97,87 %
20.09.2016 14:20 13,8 C 83 % 1015,9 hPa 0,0 l/m 5,5 km/h (1 Bft) SW 226 0 min 0,000 mm 1,3 UV-I 225 W/m 11,0 C 13,8 C 8,0 km/h (2 Bft) 100,00 %
20.09.2016 14:22 13,9 C 83 % 1015,9 hPa 0,0 l/m 6,9 km/h (2 Bft) SW 226 0 min 0,000 mm 1,3 UV-I 227 W/m 11,1 C 13,6 C 9,7 km/h (2 Bft) 98,00 %
20.09.2016 14:24 13,9 C 82 % 1015,9 hPa 0,0 l/m 8,5 km/h (2 Bft) W-SW 253 0 min 0,000 mm 1,3 UV-I 227 W/m 10,9 C 12,7 C 12,9 km/h (3 Bft) 97,44 %
20.09.2016 14:26 13,9 C 84 % 1015,9 hPa 0,0 l/m 6,7 km/h (2 Bft) SW 236 0 min 0,000 mm 1,3 UV-I 222 W/m 11,2 C 13,7 C 9,7 km/h (2 Bft) 100,00 %
20.09.2016 14:28 13,9 C 84 % 1015,9 hPa 0,0 l/m 7,3 km/h (2 Bft) SW 228 0 min 0,000 mm 1,3 UV-I 217 W/m 11,2 C 13,4 C 11,3 km/h (2 Bft) 100,00 %
20.09.2016 14:30 13,8 C 82 % 1015,9 hPa 0,0 l/m 7,2 km/h (2 Bft) S 188 0 min 0,000 mm 1,2 UV-I 213 W/m 10,8 C 13,3 C 11,3 km/h (2 Bft) 96,00 %
20.09.2016 14:32 13,8 C 83 % 1015,9 hPa 0,0 l/m 7,6 km/h (2 Bft) S-SW 213 0 min 0,000 mm 1,2 UV-I 208 W/m 11,0 C 13,1 C 12,9 km/h (3 Bft) 100,00 %
20.09.2016 14:34 13,8 C 84 % 1015,9 hPa 0,0 l/m 7,5 km/h (2 Bft) S 181 0 min 0,000 mm 1,1 UV-I 198 W/m 11,1 C 13,1 C 11,3 km/h (2 Bft) 100,00 %
20.09.2016 14:36 13,8 C 83 % 1015,9 hPa 0,0 l/m 5,2 km/h (1 Bft) S 188 0 min 0,000 mm 1,1 UV-I 185 W/m 11,0 C 13,8 C 9,7 km/h (2 Bft) 100,00 %
20.09.2016 14:38 13,8 C 84 % 1015,9 hPa 0,0 l/m 7,9 km/h (2 Bft) S-SW 207 0 min 0,000 mm 1,0 UV-I 170 W/m 11,1 C 12,9 C 12,9 km/h (3 Bft) 100,00 %
20.09.2016 14:40 13,8 C 84 % 1015,9 hPa 0,0 l/m 9,6 km/h (2 Bft) SW 219 0 min 0,000 mm 0,9 UV-I 162 W/m 11,1 C 12,0 C 12,9 km/h (3 Bft) 100,00 %
20.09.2016 14:42 13,8 C 84 % 1015,9 hPa 0,0 l/m 10,0 km/h (2 Bft) S-SW 196 0 min 0,000 mm 0,9 UV-I 164 W/m 11,1 C 11,8 C 14,5 km/h (3 Bft) 100,00 %
20.09.2016 14:44 13,8 C 83 % 1015,8 hPa 0,0 l/m 8,7 km/h (2 Bft) SW 223 0 min 0,000 mm 1,0 UV-I 174 W/m 11,0 C 12,5 C 12,9 km/h (3 Bft) 100,00 %
20.09.2016 14:46 13,7 C 84 % 1015,9 hPa 0,0 l/m 8,6 km/h (2 Bft) SW 216 0 min 0,000 mm 1,0 UV-I 178 W/m 11,0 C 12,4 C 11,3 km/h (2 Bft) 98,00 %
20.09.2016 14:48 13,7 C 84 % 1015,8 hPa 0,0 l/m 12,7 km/h (3 Bft) W-SW 252 0 min 0,000 mm 1,0 UV-I 174 W/m 11,0 C 10,5 C 16,1 km/h (3 Bft) 100,00 %
20.09.2016 14:50 13,7 C 83 % 1015,8 hPa 0,0 l/m 11,1 km/h (2 Bft) S-SW 213 0 min 0,000 mm 1,0 UV-I 173 W/m 10,9 C 11,2 C 14,5 km/h (3 Bft) 100,00 %
20.09.2016 14:52 13,6 C 83 % 1015,8 hPa 0,0 l/m 9,6 km/h (2 Bft) W 270 0 min 0,000 mm 1,0 UV-I 183 W/m 10,8 C 11,8 C 12,9 km/h (3 Bft) 100,00 %
20.09.2016 14:54 13,7 C 84 % 1015,8 hPa 0,0 l/m 10,8 km/h (2 Bft) SW 221 0 min 0,000 mm 1,1 UV-I 197 W/m 11,0 C 11,3 C 17,7 km/h (3 Bft) 98,21 %
20.09.2016 14:56 13,7 C 83 % 1015,8 hPa 0,0 l/m 10,3 km/h (2 Bft) SW 229 0 min 0,000 mm 1,2 UV-I 211 W/m 10,9 C 11,5 C 14,5 km/h (3 Bft) 100,00 %
20.09.2016 14:58 13,7 C 83 % 1015,8 hPa 0,0 l/m 10,5 km/h (2 Bft) SW 229 0 min 0,000 mm 1,2 UV-I 222 W/m 10,9 C 11,4 C 14,5 km/h (3 Bft) 100,00 %
20.09.2016 15:00 13,7 C 83 % 1015,8 hPa 0,0 l/m 11,0 km/h (2 Bft) SW 225 0 min 0,127 mm 1,3 UV-I 235 W/m 10,9 C 11,2 C 16,1 km/h (3 Bft) 100,00 %
20.09.2016 15:02 13,7 C 83 % 1015,8 hPa 0,0 l/m 8,4 km/h (2 Bft) S-SW 207 0 min 0,000 mm 1,3 UV-I 255 W/m 10,9 C 12,5 C 11,3 km/h (2 Bft) 100,00 %
20.09.2016 15:04 13,8 C 84 % 1015,8 hPa 0,0 l/m 5,0 km/h (1 Bft) SW 227 0 min 0,000 mm 1,4 UV-I 276 W/m 11,1 C 13,8 C 8,0 km/h (2 Bft) 100,00 %
20.09.2016 15:06 13,9 C 83 % 1015,9 hPa 0,0 l/m 8,1 km/h (2 Bft) SW 236 0 min 0,000 mm 1,4 UV-I 276 W/m 11,1 C 12,9 C 12,9 km/h (3 Bft) 98,11 %
20.09.2016 15:08 13,9 C 83 % 1015,9 hPa 0,0 l/m 7,1 km/h (2 Bft) S-SW 194 0 min 0,000 mm 1,3 UV-I 267 W/m 11,1 C 13,5 C 12,9 km/h (3 Bft) 98,00 %
20.09.2016 15:10 13,9 C 83 % 1015,9 hPa 0,0 l/m 8,0 km/h (2 Bft) W-SW 244 0 min 0,000 mm 1,2 UV-I 246 W/m 11,1 C 12,9 C 14,5 km/h (3 Bft) 97,37 %
20.09.2016 15:12 13,9 C 81 % 1015,9 hPa 0,0 l/m 8,8 km/h (2 Bft) SW 227 0 min 0,000 mm 1,2 UV-I 237 W/m 10,7 C 12,5 C 14,5 km/h (3 Bft) 100,00 %
20.09.2016 15:14 13,8 C 81 % 1015,9 hPa 0,0 l/m 10,9 km/h (2 Bft) SW 221 0 min 0,000 mm 1,2 UV-I 235 W/m 10,6 C 11,4 C 14,5 km/h (3 Bft) 100,00 %
20.09.2016 15:16 13,8 C 81 % 1015,9 hPa 0,0 l/m 6,4 km/h (2 Bft) S-SO 166 0 min 0,000 mm 1,2 UV-I 231 W/m 10,6 C 13,8 C 9,7 km/h (2 Bft) 100,00 %
20.09.2016 15:18 13,8 C 82 % 1015,9 hPa 0,0 l/m 6,6 km/h (2 Bft) S 171 0 min 0,000 mm 1,2 UV-I 228 W/m 10,8 C 13,7 C 9,7 km/h (2 Bft) 97,87 %
20.09.2016 15:20 13,8 C 80 % 1015,9 hPa 0,0 l/m 5,3 km/h (1 Bft) S-SW 198 0 min 0,000 mm 1,1 UV-I 221 W/m 10,4 C 13,8 C 11,3 km/h (2 Bft) 100,00 %
20.09.2016 15:22 13,9 C 82 % 1015,8 hPa 0,0 l/m 4,9 km/h (1 Bft) SW 220 0 min 0,000 mm 1,0 UV-I 215 W/m 10,9 C 13,9 C 9,7 km/h (2 Bft) 95,74 %
20.09.2016 15:24 13,9 C 82 % 1015,9 hPa 0,0 l/m 5,6 km/h (1 Bft) W 261 0 min 0,000 mm 1,0 UV-I 205 W/m 10,9 C 13,9 C 11,3 km/h (2 Bft) 98,11 %
20.09.2016 15:26 13,9 C 81 % 1015,9 hPa 0,0 l/m 9,4 km/h (2 Bft) SW 229 0 min 0,000 mm 0,9 UV-I 200 W/m 10,7 C 12,2 C 14,5 km/h (3 Bft) 100,00 %
20.09.2016 15:28 13,8 C 80 % 1015,9 hPa 0,0 l/m 6,5 km/h (2 Bft) W-SW 254 0 min 0,000 mm 0,9 UV-I 194 W/m 10,4 C 13,8 C 12,9 km/h (3 Bft) 98,00 %
20.09.2016 15:30 13,8 C 82 % 1015,9 hPa 0,0 l/m 4,6 km/h (1 Bft) S-SW 198 0 min 0,000 mm 0,9 UV-I 185 W/m 10,8 C 13,8 C 11,3 km/h (2 Bft) 100,00 %
20.09.2016 15:32 13,9 C 82 % 1015,8 hPa 0,0 l/m 4,4 km/h (1 Bft) W-SW 244 0 min 0,000 mm 0,8 UV-I 170 W/m 10,9 C 13,9 C 9,7 km/h (2 Bft) 97,87 %
20.09.2016 15:34 13,9 C 82 % 1015,9 hPa 0,0 l/m 6,9 km/h (2 Bft) W-SW 239 0 min 0,000 mm 0,7 UV-I 155 W/m 10,9 C 13,6 C 11,3 km/h (2 Bft) 100,00 %
20.09.2016 15:36 13,8 C 81 % 1015,8 hPa 0,0 l/m 7,4 km/h (2 Bft) S-SW 213 0 min 0,000 mm 0,7 UV-I 148 W/m 10,6 C 13,2 C 12,9 km/h (3 Bft) 100,00 %
20.09.2016 15:38 13,8 C 79 % 1015,8 hPa 0,0 l/m 8,5 km/h (2 Bft) SW 229 0 min 0,000 mm 0,7 UV-I 150 W/m 10,2 C 12,6 C 12,9 km/h (3 Bft) 97,78 %
20.09.2016 15:40 13,7 C 80 % 1015,8 hPa 0,0 l/m 7,8 km/h (2 Bft) SW 215 0 min 0,000 mm 0,7 UV-I 152 W/m 10,3 C 12,9 C 11,3 km/h (2 Bft) 98,08 %
20.09.2016 15:42 13,7 C 78 % 1015,9 hPa 0,0 l/m 5,7 km/h (1 Bft) W-SW 240 0 min 0,000 mm 0,7 UV-I 149 W/m 9,9 C 13,7 C 11,3 km/h (2 Bft) 97,44 %
20.09.2016 15:44 13,7 C 80 % 1015,8 hPa 0,0 l/m 7,1 km/h (2 Bft) S-SW 205 0 min 0,000 mm 0,7 UV-I 151 W/m 10,3 C 13,3 C 12,9 km/h (3 Bft) 96,23 %
20.09.2016 15:46 13,7 C 78 % 1015,9 hPa 0,0 l/m 6,4 km/h (2 Bft) S-SW 212 0 min 0,000 mm 0,7 UV-I 151 W/m 9,9 C 13,7 C 11,3 km/h (2 Bft) 97,87 %
20.09.2016 15:48 13,7 C 79 % 1015,8 hPa 0,0 l/m 8,2 km/h (2 Bft) SW 217 0 min 0,000 mm 0,7 UV-I 153 W/m 10,1 C 12,6 C 12,9 km/h (3 Bft) 95,74 %
20.09.2016 15:50 13,7 C 79 % 1015,9 hPa 0,0 l/m 5,4 km/h (1 Bft) S-SW 204 0 min 0,000 mm 0,7 UV-I 157 W/m 10,1 C 13,7 C 9,7 km/h (2 Bft) 97,56 %
20.09.2016 15:52 13,7 C 79 % 1015,9 hPa 0,0 l/m 6,9 km/h (2 Bft) S-SW 209 0 min 0,000 mm 0,7 UV-I 168 W/m 10,1 C 13,4 C 9,7 km/h (2 Bft) 98,21 %
20.09.2016 15:54 13,7 C 79 % 1015,9 hPa 0,0 l/m 5,5 km/h (1 Bft) SW 234 0 min 0,000 mm 0,8 UV-I 172 W/m 10,1 C 13,7 C 8,0 km/h (2 Bft) 97,37 %
20.09.2016 15:56 13,8 C 81 % 1015,9 hPa 0,0 l/m 4,3 km/h (1 Bft) SW 226 0 min 0,000 mm 0,9 UV-I 186 W/m 10,6 C 13,8 C 6,4 km/h (2 Bft) 97,56 %
20.09.2016 15:58 13,8 C 78 % 1015,9 hPa 0,0 l/m 5,8 km/h (2 Bft) S-SW 208 0 min 0,000 mm 0,9 UV-I 183 W/m 10,0 C 13,8 C 9,7 km/h (2 Bft) 96,23 %
20.09.2016 16:00 13,8 C 79 % 1015,9 hPa 0,0 l/m 8,6 km/h (2 Bft) S-SW 192 0 min 0,000 mm 0,9 UV-I 179 W/m 10,2 C 12,5 C 12,9 km/h (3 Bft) 97,87 %
20.09.2016 16:02 13,8 C 78 % 1015,9 hPa 0,0 l/m 10,6 km/h (2 Bft) S-SW 211 0 min 0,127 mm 0,8 UV-I 179 W/m 10,0 C 11,5 C 14,5 km/h (3 Bft) 98,11 %
20.09.2016 16:04 13,8 C 79 % 1015,9 hPa 0,0 l/m 6,7 km/h (2 Bft) W-SW 244 0 min 0,000 mm 0,9 UV-I 183 W/m 10,2 C 13,6 C 12,9 km/h (3 Bft) 97,73 %
20.09.2016 16:06 13,8 C 80 % 1015,9 hPa 0,0 l/m 8,6 km/h (2 Bft) SW 219 0 min 0,000 mm 0,9 UV-I 190 W/m 10,4 C 12,5 C 14,5 km/h (3 Bft) 97,56 %
20.09.2016 16:08 13,9 C 79 % 1015,9 hPa 0,0 l/m 8,3 km/h (2 Bft) S-SW 205 0 min 0,000 mm 0,9 UV-I 192 W/m 10,3 C 12,8 C 16,1 km/h (3 Bft) 96,23 %
20.09.2016 16:10 13,9 C 80 % 1015,9 hPa 0,0 l/m 5,4 km/h (1 Bft) S-SW 207 0 min 0,000 mm 0,9 UV-I 195 W/m 10,5 C 13,9 C 9,7 km/h (2 Bft) 100,00 %
20.09.2016 16:12 13,9 C 79 % 1015,9 hPa 0,0 l/m 7,4 km/h (2 Bft) SW 233 0 min 0,000 mm 0,8 UV-I 193 W/m 10,3 C 13,3 C 11,3 km/h (2 Bft) 97,87 %
20.09.2016 16:14 13,8 C 78 % 1015,9 hPa 0,0 l/m 7,1 km/h (2 Bft) S-SW 207 0 min 0,000 mm 0,8 UV-I 189 W/m 10,0 C 13,4 C 11,3 km/h (2 Bft) 100,00 %
20.09.2016 16:16 13,8 C 79 % 1015,9 hPa 0,0 l/m 7,6 km/h (2 Bft) S-SW 208 0 min 0,000 mm 0,8 UV-I 186 W/m 10,2 C 13,1 C 9,7 km/h (2 Bft) 100,00 %
20.09.2016 16:18 13,8 C 79 % 1015,9 hPa 0,0 l/m 7,8 km/h (2 Bft) S-SW 201 0 min 0,000 mm 0,8 UV-I 188 W/m 10,2 C 13,0 C 12,9 km/h (3 Bft) 100,00 %
20.09.2016 16:20 13,8 C 79 % 1015,9 hPa 0,0 l/m 6,2 km/h (2 Bft) SW 215 0 min 0,000 mm 0,8 UV-I 203 W/m 10,2 C 13,8 C 12,9 km/h (3 Bft) 100,00 %
20.09.2016 16:22 13,9 C 79 % 1015,9 hPa 0,0 l/m 5,7 km/h (1 Bft) SW 219 0 min 0,000 mm 0,8 UV-I 211 W/m 10,3 C 13,9 C 11,3 km/h (2 Bft) 97,22 %
20.09.2016 16:24 13,9 C 79 % 1015,8 hPa 0,0 l/m 4,9 km/h (1 Bft) S-SW 193 0 min 0,000 mm 0,8 UV-I 207 W/m 10,3 C 13,9 C 9,7 km/h (2 Bft) 100,00 %
20.09.2016 16:26 13,9 C 78 % 1015,8 hPa 0,0 l/m 6,1 km/h (2 Bft) S 185 0 min 0,000 mm 0,8 UV-I 202 W/m 10,1 C 13,9 C 9,7 km/h (2 Bft) 98,11 %
20.09.2016 16:28 14,0 C 80 % 1015,8 hPa 0,0 l/m 5,0 km/h (1 Bft) S-SW 198 0 min 0,000 mm 0,8 UV-I 197 W/m 10,6 C 14,0 C 11,3 km/h (2 Bft) 100,00 %
20.09.2016 16:30 14,0 C 78 % 1015,9 hPa 0,0 l/m 7,8 km/h (2 Bft) S-SW 206 0 min 0,000 mm 0,8 UV-I 182 W/m 10,2 C 13,2 C 14,5 km/h (3 Bft) 98,11 %
20.09.2016 16:32 14,0 C 79 % 1015,9 hPa 0,0 l/m 7,8 km/h (2 Bft) S-SW 198 0 min 0,000 mm 0,8 UV-I 192 W/m 10,4 C 13,2 C 12,9 km/h (3 Bft) 100,00 %
20.09.2016 16:34 13,9 C 80 % 1015,8 hPa 0,0 l/m 6,4 km/h (2 Bft) SW 215 0 min 0,000 mm 0,8 UV-I 200 W/m 10,5 C 13,9 C 12,9 km/h (3 Bft) 100,00 %
20.09.2016 16:36 14,0 C 79 % 1015,9 hPa 0,0 l/m 6,6 km/h (2 Bft) S-SW 199 0 min 0,000 mm 0,8 UV-I 211 W/m 10,4 C 13,9 C 12,9 km/h (3 Bft) 100,00 %
20.09.2016 16:38 14,1 C 80 % 1015,9 hPa 0,0 l/m 5,4 km/h (1 Bft) S-SW 193 0 min 0,000 mm 0,7 UV-I 208 W/m 10,7 C 14,1 C 11,3 km/h (2 Bft) 100,00 %
20.09.2016 16:40 14,1 C 79 % 1015,9 hPa 0,0 l/m 6,6 km/h (2 Bft) SW 216 0 min 0,000 mm 0,7 UV-I 194 W/m 10,5 C 14,0 C 9,7 km/h (2 Bft) 100,00 %
20.09.2016 16:42 14,0 C 78 % 1016,0 hPa 0,0 l/m 8,2 km/h (2 Bft) S-SW 194 0 min 0,000 mm 0,7 UV-I 183 W/m 10,2 C 12,9 C 11,3 km/h (2 Bft) 98,11 %
20.09.2016 16:44 14,0 C 79 % 1016,0 hPa 0,0 l/m 7,1 km/h (2 Bft) S 169 0 min 0,000 mm 0,6 UV-I 195 W/m 10,4 C 13,6 C 11,3 km/h (2 Bft) 100,00 %
20.09.2016 16:46 14,0 C 79 % 1016,0 hPa 0,0 l/m 5,9 km/h (2 Bft) SW 231 0 min 0,000 mm 0,6 UV-I 197 W/m 10,4 C 14,0 C 11,3 km/h (2 Bft) 100,00 %
20.09.2016 16:48 14,0 C 77 % 1016,0 hPa 0,0 l/m 9,0 km/h (2 Bft) S 182 2 min 0,000 mm 0,6 UV-I 207 W/m 10,0 C 12,5 C 14,5 km/h (3 Bft) 97,87 %
20.09.2016 16:50 14,0 C 78 % 1016,0 hPa 0,0 l/m 9,5 km/h (2 Bft) SW 233 2 min 0,000 mm 0,6 UV-I 200 W/m 10,2 C 12,3 C 14,5 km/h (3 Bft) 100,00 %
20.09.2016 16:52 13,9 C 78 % 1016,1 hPa 0,0 l/m 9,3 km/h (2 Bft) S-SO 159 2 min 0,000 mm 0,6 UV-I 201 W/m 10,1 C 12,2 C 12,9 km/h (3 Bft) 100,00 %
20.09.2016 16:54 13,9 C 78 % 1016,1 hPa 0,0 l/m 6,4 km/h (2 Bft) S-SW 198 2 min 0,000 mm 0,6 UV-I 201 W/m 10,1 C 13,9 C 11,3 km/h (2 Bft) 100,00 %
20.09.2016 16:56 14,0 C 78 % 1016,1 hPa 0,0 l/m 6,9 km/h (2 Bft) S-SW 210 2 min 0,000 mm 0,5 UV-I 195 W/m 10,2 C 13,7 C 12,9 km/h (3 Bft) 100,00 %
20.09.2016 16:58 13,9 C 77 % 1016,1 hPa 0,0 l/m 4,1 km/h (1 Bft) S 191 0 min 0,000 mm 0,5 UV-I 186 W/m 9,9 C 13,9 C 9,7 km/h (2 Bft) 100,00 %
20.09.2016 17:00 14,0 C 79 % 1016,1 hPa 0,0 l/m 4,1 km/h (1 Bft) S-SW 204 0 min 0,127 mm 0,5 UV-I 179 W/m 10,4 C 14,0 C 8,0 km/h (2 Bft) 100,00 %
20.09.2016 17:02 14,1 C 80 % 1016,1 hPa 0,0 l/m 4,2 km/h (1 Bft) SW 234 0 min 0,000 mm 0,5 UV-I 173 W/m 10,7 C 14,1 C 9,7 km/h (2 Bft) 98,00 %
20.09.2016 17:04 14,1 C 78 % 1016,1 hPa 0,0 l/m 8,1 km/h (2 Bft) SW 218 0 min 0,000 mm 0,5 UV-I 176 W/m 10,3 C 13,1 C 11,3 km/h (2 Bft) 100,00 %
20.09.2016 17:06 14,1 C 80 % 1016,1 hPa 0,0 l/m 5,3 km/h (1 Bft) S-SW 207 2 min 0,000 mm 0,5 UV-I 189 W/m 10,7 C 14,1 C 9,7 km/h (2 Bft) 98,53 %
20.09.2016 17:08 14,1 C 80 % 1016,1 hPa 0,0 l/m 7,4 km/h (2 Bft) S 175 2 min 0,000 mm 0,5 UV-I 212 W/m 10,7 C 13,5 C 11,3 km/h (2 Bft) 100,00 %
20.09.2016 17:10 14,1 C 80 % 1016,1 hPa 0,0 l/m 4,6 km/h (1 Bft) S-SO 161 2 min 0,000 mm 0,3 UV-I 208 W/m 10,7 C 14,1 C 8,0 km/h (2 Bft) 100,00 %
20.09.2016 17:12 14,2 C 81 % 1016,1 hPa 0,0 l/m 5,4 km/h (1 Bft) S 175 2 min 0,000 mm 0,2 UV-I 218 W/m 11,0 C 14,2 C 8,0 km/h (2 Bft) 100,00 %
20.09.2016 17:14 14,2 C 80 % 1016,1 hPa 0,0 l/m 7,1 km/h (2 Bft) S 189 2 min 0,000 mm 0,0 UV-I 198 W/m 10,8 C 13,8 C 9,7 km/h (2 Bft) 100,00 %
20.09.2016 17:16 14,2 C 79 % 1016,0 hPa 0,0 l/m 6,5 km/h (2 Bft) S-SO 157 2 min 0,000 mm 0,0 UV-I 168 W/m 10,6 C 14,2 C 9,7 km/h (2 Bft) 100,00 %
20.09.2016 17:18 14,2 C 80 % 1016,0 hPa 0,0 l/m 4,3 km/h (1 Bft) SW 217 2 min 0,000 mm 0,0 UV-I 196 W/m 10,8 C 14,2 C 6,4 km/h (2 Bft) 100,00 %
20.09.2016 17:20 14,3 C 82 % 1016,0 hPa 0,0 l/m 3,9 km/h (1 Bft) S-SW 199 2 min 0,000 mm 0,0 UV-I 166 W/m 11,3 C 14,3 C 6,4 km/h (2 Bft) 100,00 %
20.09.2016 17:22 14,3 C 81 % 1016,1 hPa 0,0 l/m 5,4 km/h (1 Bft) S-SW 195 2 min 0,000 mm 0,0 UV-I 153 W/m 11,1 C 14,3 C 9,7 km/h (2 Bft) 100,00 %
20.09.2016 17:24 14,2 C 79 % 1016,1 hPa 0,0 l/m 5,0 km/h (1 Bft) S-SO 158 0 min 0,000 mm 0,0 UV-I 138 W/m 10,6 C 14,2 C 9,7 km/h (2 Bft) 100,00 %
20.09.2016 17:26 14,2 C 78 % 1016,1 hPa 0,0 l/m 5,3 km/h (1 Bft) S 181 2 min 0,000 mm 0,0 UV-I 202 W/m 10,4 C 14,2 C 8,0 km/h (2 Bft) 100,00 %
20.09.2016 17:28 14,2 C 77 % 1016,1 hPa 0,0 l/m 5,6 km/h (1 Bft) S 184 2 min 0,000 mm 0,0 UV-I 190 W/m 10,2 C 14,2 C 9,7 km/h (2 Bft) 100,00 %
20.09.2016 17:30 14,1 C 78 % 1016,1 hPa 0,0 l/m 5,4 km/h (1 Bft) W-SW 246 2 min 0,000 mm 0,0 UV-I 151 W/m 10,3 C 14,1 C 11,3 km/h (2 Bft) 100,00 %
20.09.2016 17:32 14,2 C 79 % 1016,1 hPa 0,0 l/m 7,5 km/h (2 Bft) S-SW 198 2 min 0,000 mm 0,0 UV-I 188 W/m 10,6 C 13,5 C 14,5 km/h (3 Bft) 97,73 %
20.09.2016 17:34 14,2 C 78 % 1016,1 hPa 0,0 l/m 8,3 km/h (2 Bft) W-SW 238 2 min 0,000 mm 0,0 UV-I 187 W/m 10,4 C 13,1 C 11,3 km/h (2 Bft) 100,00 %
20.09.2016 17:36 14,2 C 77 % 1016,1 hPa 0,0 l/m 7,4 km/h (2 Bft) W-SW 242 2 min 0,000 mm 0,0 UV-I 226 W/m 10,2 C 13,6 C 9,7 km/h (2 Bft) 96,36 %
20.09.2016 17:38 14,2 C 77 % 1016,1 hPa 0,0 l/m 5,5 km/h (1 Bft) S-SW 213 2 min 0,000 mm 0,0 UV-I 213 W/m 10,2 C 14,2 C 9,7 km/h (2 Bft) 97,62 %
20.09.2016 17:40 14,2 C 77 % 1016,1 hPa 0,0 l/m 5,5 km/h (1 Bft) W-SW 241 2 min 0,000 mm 0,0 UV-I 163 W/m 10,2 C 14,2 C 8,0 km/h (2 Bft) 98,00 %
20.09.2016 17:42 14,1 C 78 % 1016,1 hPa 0,0 l/m 6,2 km/h (2 Bft) W-SW 239 2 min 0,000 mm 0,0 UV-I 157 W/m 10,3 C 14,1 C 9,7 km/h (2 Bft) 97,87 %
20.09.2016 17:44 14,1 C 78 % 1016,1 hPa 0,0 l/m 6,6 km/h (2 Bft) SW 234 2 min 0,000 mm 0,0 UV-I 126 W/m 10,3 C 14,0 C 11,3 km/h (2 Bft) 97,56 %
20.09.2016 17:46 14,1 C 75 % 1016,1 hPa 0,0 l/m 7,4 km/h (2 Bft) W-SW 238 2 min 0,000 mm 0,0 UV-I 129 W/m 9,7 C 13,5 C 11,3 km/h (2 Bft) 95,74 %
20.09.2016 17:48 14,0 C 76 % 1016,1 hPa 0,0 l/m 7,9 km/h (2 Bft) SW 221 2 min 0,000 mm 0,0 UV-I 124 W/m 9,8 C 13,1 C 11,3 km/h (2 Bft) 97,87 %
20.09.2016 17:50 14,0 C 78 % 1016,1 hPa 0,0 l/m 5,2 km/h (1 Bft) S-SW 202 2 min 0,000 mm 0,0 UV-I 118 W/m 10,2 C 14,0 C 6,4 km/h (2 Bft) 96,23 %
20.09.2016 17:52 13,9 C 78 % 1016,1 hPa 0,0 l/m 4,8 km/h (1 Bft) SW 219 0 min 0,000 mm 0,0 UV-I 105 W/m 10,1 C 13,9 C 6,4 km/h (2 Bft) 97,56 %
20.09.2016 17:54 13,9 C 78 % 1016,1 hPa 0,0 l/m 3,7 km/h (1 Bft) SW 234 0 min 0,000 mm 0,0 UV-I 96 W/m 10,1 C 13,9 C 6,4 km/h (2 Bft) 98,00 %
20.09.2016 17:56 13,8 C 79 % 1016,1 hPa 0,0 l/m 4,9 km/h (1 Bft) S-SW 193 0 min 0,000 mm 0,0 UV-I 90 W/m 10,2 C 13,8 C 8,0 km/h (2 Bft) 98,00 %
20.09.2016 17:58 13,8 C 80 % 1016,1 hPa 0,0 l/m 4,0 km/h (1 Bft) S-SW 205 0 min 0,000 mm 0,0 UV-I 84 W/m 10,4 C 13,8 C 6,4 km/h (2 Bft) 97,87 %
20.09.2016 18:00 13,8 C 79 % 1016,1 hPa 0,0 l/m 5,3 km/h (1 Bft) W-SW 248 0 min 0,000 mm 0,0 UV-I 71 W/m 10,2 C 13,8 C 9,7 km/h (2 Bft) 97,87 %
20.09.2016 18:02 13,8 C 80 % 1016,1 hPa 0,0 l/m 5,3 km/h (1 Bft) S-SW 195 0 min 0,101 mm 0,0 UV-I 55 W/m 10,4 C 13,8 C 8,0 km/h (2 Bft) 98,00 %
20.09.2016 18:04 13,7 C 80 % 1016,1 hPa 0,0 l/m 5,1 km/h (1 Bft) S-SW 192 0 min 0,000 mm 0,0 UV-I 44 W/m 10,3 C 13,7 C 8,0 km/h (2 Bft) 97,62 %
20.09.2016 18:06 13,7 C 80 % 1016,1 hPa 0,0 l/m 5,7 km/h (1 Bft) S-SW 207 0 min 0,000 mm 0,0 UV-I 41 W/m 10,3 C 13,7 C 9,7 km/h (2 Bft) 100,00 %
20.09.2016 18:08 13,6 C 79 % 1016,1 hPa 0,0 l/m 8,0 km/h (2 Bft) SW 227 0 min 0,000 mm 0,0 UV-I 38 W/m 10,0 C 12,6 C 12,9 km/h (3 Bft) 97,73 %
20.09.2016 18:10 13,6 C 80 % 1016,1 hPa 0,0 l/m 6,4 km/h (2 Bft) SW 215 0 min 0,000 mm 0,0 UV-I 32 W/m 10,2 C 13,6 C 9,7 km/h (2 Bft) 100,00 %
20.09.2016 18:12 13,5 C 80 % 1016,1 hPa 0,0 l/m 6,7 km/h (2 Bft) S-SW 209 0 min 0,000 mm 0,0 UV-I 30 W/m 10,1 C 13,3 C 11,3 km/h (2 Bft) 100,00 %
20.09.2016 18:14 13,5 C 80 % 1016,1 hPa 0,0 l/m 5,7 km/h (1 Bft) S-SW 210 0 min 0,000 mm 0,0 UV-I 25 W/m 10,1 C 13,5 C 9,7 km/h (2 Bft) 100,00 %
20.09.2016 18:16 13,4 C 80 % 1016,1 hPa 0,0 l/m 5,7 km/h (1 Bft) S-SW 200 0 min 0,000 mm 0,0 UV-I 26 W/m 10,0 C 13,4 C 9,7 km/h (2 Bft) 100,00 %
20.09.2016 18:18 13,4 C 80 % 1016,1 hPa 0,0 l/m 4,8 km/h (1 Bft) S-SW 213 0 min 0,000 mm 0,0 UV-I 28 W/m 10,0 C 13,4 C 8,0 km/h (2 Bft) 97,62 %
20.09.2016 18:20 13,4 C 80 % 1016,1 hPa 0,0 l/m 5,6 km/h (1 Bft) S 175 0 min 0,000 mm 0,0 UV-I 28 W/m 10,0 C 13,4 C 9,7 km/h (2 Bft) 98,11 %
20.09.2016 18:22 13,3 C 80 % 1016,1 hPa 0,0 l/m 4,8 km/h (1 Bft) S-SW 202 0 min 0,000 mm 0,0 UV-I 27 W/m 9,9 C 13,3 C 6,4 km/h (2 Bft) 100,00 %
20.09.2016 18:24 13,3 C 81 % 1016,1 hPa 0,0 l/m 5,5 km/h (1 Bft) S-SW 213 0 min 0,000 mm 0,0 UV-I 25 W/m 10,1 C 13,3 C 9,7 km/h (2 Bft) 98,00 %
20.09.2016 18:26 13,3 C 81 % 1016,2 hPa 0,0 l/m 3,8 km/h (1 Bft) S-SW 203 0 min 0,000 mm 0,0 UV-I 21 W/m 10,1 C 13,3 C 4,8 km/h (1 Bft) 100,00 %
20.09.2016 18:28 13,3 C 81 % 1016,2 hPa 0,0 l/m 4,9 km/h (1 Bft) SW 215 0 min 0,000 mm 0,0 UV-I 19 W/m 10,1 C 13,3 C 9,7 km/h (2 Bft) 100,00 %
20.09.2016 18:30 13,3 C 81 % 1016,2 hPa 0,0 l/m 5,8 km/h (2 Bft) SW 214 0 min 0,000 mm 0,0 UV-I 17 W/m 10,1 C 13,3 C 9,7 km/h (2 Bft) 97,37 %
20.09.2016 18:32 13,2 C 81 % 1016,2 hPa 0,0 l/m 4,8 km/h (1 Bft) S 184 0 min 0,000 mm 0,0 UV-I 16 W/m 10,0 C 13,2 C 8,0 km/h (2 Bft) 100,00 %
20.09.2016 18:34 13,2 C 82 % 1016,2 hPa 0,0 l/m 5,6 km/h (1 Bft) S 181 0 min 0,000 mm 0,0 UV-I 16 W/m 10,2 C 13,2 C 8,0 km/h (2 Bft) 98,11 %
20.09.2016 18:36 13,2 C 82 % 1016,2 hPa 0,0 l/m 3,7 km/h (1 Bft) SW 229 0 min 0,000 mm 0,0 UV-I 14 W/m 10,2 C 13,2 C 6,4 km/h (2 Bft) 100,00 %
20.09.2016 18:38 13,2 C 83 % 1016,2 hPa 0,0 l/m 4,5 km/h (1 Bft) S-SW 196 0 min 0,000 mm 0,0 UV-I 12 W/m 10,4 C 13,2 C 6,4 km/h (2 Bft) 100,00 %
20.09.2016 18:40 13,2 C 83 % 1016,2 hPa 0,0 l/m 3,4 km/h (1 Bft) S-SW 196 0 min 0,000 mm 0,0 UV-I 12 W/m 10,4 C 13,2 C 6,4 km/h (2 Bft) 100,00 %
20.09.2016 18:42 13,1 C 83 % 1016,2 hPa 0,0 l/m 3,8 km/h (1 Bft) S-SW 196 0 min 0,000 mm 0,0 UV-I 12 W/m 10,3 C 13,1 C 4,8 km/h (1 Bft) 100,00 %
20.09.2016 18:44 13,1 C 84 % 1016,2 hPa 0,0 l/m 3,8 km/h (1 Bft) S 184 0 min 0,000 mm 0,0 UV-I 12 W/m 10,5 C 13,1 C 4,8 km/h (1 Bft) 100,00 %
20.09.2016 18:46 13,1 C 84 % 1016,2 hPa 0,0 l/m 3,5 km/h (1 Bft) S 184 0 min 0,000 mm 0,0 UV-I 12 W/m 10,5 C 13,1 C 4,8 km/h (1 Bft) 100,00 %
20.09.2016 18:48 13,1 C 85 % 1016,2 hPa 0,0 l/m 3,7 km/h (1 Bft) S 188 0 min 0,000 mm 0,0 UV-I 12 W/m 10,6 C 13,1 C 4,8 km/h (1 Bft) 100,00 %
20.09.2016 18:50 13,1 C 85 % 1016,3 hPa 0,0 l/m 3,0 km/h (1 Bft) S 188 0 min 0,000 mm 0,0 UV-I 11 W/m 10,6 C 13,1 C 4,8 km/h (1 Bft) 100,00 %
20.09.2016 18:52 13,1 C 85 % 1016,2 hPa 0,0 l/m 3,7 km/h (1 Bft) S 190 0 min 0,000 mm 0,0 UV-I 10 W/m 10,6 C 13,1 C 4,8 km/h (1 Bft) 97,87 %
20.09.2016 18:54 13,0 C 85 % 1016,3 hPa 0,0 l/m 2,4 km/h (1 Bft) S 190 0 min 0,000 mm 0,0 UV-I 9 W/m 10,5 C 13,0 C 4,8 km/h (1 Bft) 100,00 %
20.09.2016 18:56 13,0 C 86 % 1016,3 hPa 0,0 l/m 2,4 km/h (1 Bft) S 190 0 min 0,000 mm 0,0 UV-I 7 W/m 10,7 C 13,0 C 4,8 km/h (1 Bft) 100,00 %
20.09.2016 18:58 12,9 C 86 % 1016,4 hPa 0,0 l/m 1,6 km/h (1 Bft) S 190 0 min 0,000 mm 0,0 UV-I 7 W/m 10,6 C 12,9 C 4,8 km/h (1 Bft) 100,00 %
20.09.2016 19:00 12,9 C 86 % 1016,4 hPa 0,0 l/m 1,4 km/h (1 Bft) S 190 0 min 0,026 mm 0,0 UV-I 6 W/m 10,6 C 12,9 C 3,2 km/h (1 Bft) 100,00 %
20.09.2016 19:02 12,9 C 86 % 1016,4 hPa 0,0 l/m 0,6 km/h (0 Bft) S 190 0 min 0,000 mm 0,0 UV-I 5 W/m 10,6 C 12,9 C 3,2 km/h (1 Bft) 100,00 %
20.09.2016 19:04 12,9 C 86 % 1016,4 hPa 0,0 l/m 1,6 km/h (1 Bft) S 190 0 min 0,000 mm 0,0 UV-I 5 W/m 10,6 C 12,9 C 3,2 km/h (1 Bft) 100,00 %
20.09.2016 19:06 12,8 C 86 % 1016,4 hPa 0,0 l/m 2,1 km/h (1 Bft) S 171 0 min 0,000 mm 0,0 UV-I 1 W/m 10,5 C 12,8 C 4,8 km/h (1 Bft) 100,00 %
20.09.2016 19:08 12,8 C 87 % 1016,4 hPa 0,0 l/m 3,1 km/h (1 Bft) S 190 0 min 0,000 mm 0,0 UV-I 0 W/m 10,7 C 12,8 C 6,4 km/h (2 Bft) 100,00 %
20.09.2016 19:10 12,8 C 87 % 1016,4 hPa 0,0 l/m 3,8 km/h (1 Bft) S 183 0 min 0,000 mm 0,0 UV-I 0 W/m 10,7 C 12,8 C 4,8 km/h (1 Bft) 100,00 %
20.09.2016 19:12 12,8 C 87 % 1016,4 hPa 0,0 l/m 2,6 km/h (1 Bft) S 183 0 min 0,000 mm 0,0 UV-I 0 W/m 10,7 C 12,8 C 4,8 km/h (1 Bft) 100,00 %
20.09.2016 19:14 12,7 C 87 % 1016,4 hPa 0,0 l/m 3,2 km/h (1 Bft) S 183 0 min 0,000 mm 0,0 UV-I 0 W/m 10,6 C 12,7 C 4,8 km/h (1 Bft) 100,00 %
20.09.2016 19:16 12,7 C 88 % 1016,4 hPa 0,0 l/m 2,5 km/h (1 Bft) S 183 0 min 0,000 mm 0,0 UV-I 0 W/m 10,8 C 12,7 C 3,2 km/h (1 Bft) 98,00 %
20.09.2016 19:18 12,7 C 88 % 1016,4 hPa 0,0 l/m 3,3 km/h (1 Bft) S 182 0 min 0,000 mm 0,0 UV-I 0 W/m 10,8 C 12,7 C 4,8 km/h (1 Bft) 100,00 %
20.09.2016 19:20 12,7 C 89 % 1016,5 hPa 0,0 l/m 1,6 km/h (1 Bft) S 182 0 min 0,000 mm 0,0 UV-I 0 W/m 10,9 C 12,7 C 4,8 km/h (1 Bft) 100,00 %
20.09.2016 19:22 12,6 C 89 % 1016,4 hPa 0,0 l/m 2,2 km/h (1 Bft) S 182 0 min 0,000 mm 0,0 UV-I 0 W/m 10,8 C 12,6 C 3,2 km/h (1 Bft) 98,00 %
20.09.2016 19:24 12,6 C 89 % 1016,5 hPa 0,0 l/m 1,5 km/h (1 Bft) S 182 0 min 0,000 mm 0,0 UV-I 0 W/m 10,8 C 12,6 C 3,2 km/h (1 Bft) 100,00 %
20.09.2016 19:26 12,5 C 89 % 1016,5 hPa 0,0 l/m 1,7 km/h (1 Bft) S 182 0 min 0,000 mm 0,0 UV-I 0 W/m 10,7 C 12,5 C 3,2 km/h (1 Bft) 100,00 %
20.09.2016 19:28 12,4 C 90 % 1016,5 hPa 0,0 l/m 3,1 km/h (1 Bft) S 182 0 min 0,000 mm 0,0 UV-I 0 W/m 10,8 C 12,4 C 4,8 km/h (1 Bft) 100,00 %
20.09.2016 19:30 12,4 C 90 % 1016,5 hPa 0,0 l/m 3,4 km/h (1 Bft) S 182 0 min 0,000 mm 0,0 UV-I 0 W/m 10,8 C 12,4 C 4,8 km/h (1 Bft) 100,00 %
20.09.2016 19:32 12,4 C 90 % 1016,5 hPa 0,0 l/m 3,9 km/h (1 Bft) S 182 0 min 0,000 mm 0,0 UV-I 0 W/m 10,8 C 12,4 C 4,8 km/h (1 Bft) 97,78 %
20.09.2016 19:34 12,3 C 90 % 1016,5 hPa 0,0 l/m 4,2 km/h (1 Bft) S 182 0 min 0,000 mm 0,0 UV-I 0 W/m 10,7 C 12,3 C 6,4 km/h (2 Bft) 95,74 %
20.09.2016 19:36 12,3 C 90 % 1016,5 hPa 0,0 l/m 3,7 km/h (1 Bft) S-SW 205 0 min 0,000 mm 0,0 UV-I 0 W/m 10,7 C 12,3 C 4,8 km/h (1 Bft) 98,00 %
20.09.2016 19:38 12,3 C 90 % 1016,5 hPa 0,0 l/m 4,0 km/h (1 Bft) S 179 0 min 0,000 mm 0,0 UV-I 0 W/m 10,7 C 12,3 C 6,4 km/h (2 Bft) 98,00 %
20.09.2016 19:40 12,3 C 90 % 1016,5 hPa 0,0 l/m 4,4 km/h (1 Bft) S-SW 193 0 min 0,000 mm 0,0 UV-I 0 W/m 10,7 C 12,3 C 6,4 km/h (2 Bft) 95,74 %
20.09.2016 19:42 12,2 C 91 % 1016,6 hPa 0,0 l/m 3,4 km/h (1 Bft) S-SW 193 0 min 0,000 mm 0,0 UV-I 0 W/m 10,8 C 12,2 C 4,8 km/h (1 Bft) 97,87 %
20.09.2016 19:44 12,2 C 91 % 1016,6 hPa 0,0 l/m 3,0 km/h (1 Bft) S-SW 209 0 min 0,000 mm 0,0 UV-I 0 W/m 10,8 C 12,2 C 4,8 km/h (1 Bft) 94,74 %
20.09.2016 19:46 12,1 C 91 % 1016,6 hPa 0,0 l/m 3,2 km/h (1 Bft) S-SW 209 0 min 0,000 mm 0,0 UV-I 0 W/m 10,7 C 12,1 C 6,4 km/h (2 Bft) 97,87 %
20.09.2016 19:48 12,1 C 91 % 1016,7 hPa 0,0 l/m 3,6 km/h (1 Bft) S-SW 209 0 min 0,000 mm 0,0 UV-I 0 W/m 10,7 C 12,1 C 4,8 km/h (1 Bft) 97,87 %
20.09.2016 19:50 12,1 C 91 % 1016,8 hPa 0,0 l/m 2,7 km/h (1 Bft) S-SW 209 0 min 0,000 mm 0,0 UV-I 0 W/m 10,7 C 12,1 C 4,8 km/h (1 Bft) 96,00 %
20.09.2016 19:52 12,1 C 92 % 1016,8 hPa 0,0 l/m 2,2 km/h (1 Bft) S-SW 209 0 min 0,000 mm 0,0 UV-I 0 W/m 10,8 C 12,1 C 3,2 km/h (1 Bft) 96,00 %
20.09.2016 19:54 12,0 C 92 % 1016,8 hPa 0,0 l/m 2,4 km/h (1 Bft) S-SW 209 0 min 0,000 mm 0,0 UV-I 0 W/m 10,7 C 12,0 C 3,2 km/h (1 Bft) 97,87 %
20.09.2016 19:56 12,0 C 92 % 1016,8 hPa 0,0 l/m 2,2 km/h (1 Bft) S-SW 209 0 min 0,000 mm 0,0 UV-I 0 W/m 10,7 C 12,0 C 4,8 km/h (1 Bft) 97,87 %
20.09.2016 19:58 12,0 C 92 % 1016,8 hPa 0,0 l/m 3,4 km/h (1 Bft) S-SW 209 0 min 0,000 mm 0,0 UV-I 0 W/m 10,7 C 12,0 C 4,8 km/h (1 Bft) 97,37 %
20.09.2016 20:00 11,9 C 92 % 1016,8 hPa 0,0 l/m 3,4 km/h (1 Bft) S-SW 209 0 min 0,000 mm 0,0 UV-I 0 W/m 10,6 C 11,9 C 4,8 km/h (1 Bft) 98,11 %
20.09.2016 20:02 11,9 C 92 % 1016,9 hPa 0,0 l/m 4,3 km/h (1 Bft) S-SW 209 0 min 0,000 mm 0,0 UV-I 0 W/m 10,6 C 11,9 C 6,4 km/h (2 Bft) 95,74 %
20.09.2016 20:04 12,0 C 92 % 1016,9 hPa 0,0 l/m 3,6 km/h (1 Bft) S-SW 209 0 min 0,000 mm 0,0 UV-I 0 W/m 10,7 C 12,0 C 4,8 km/h (1 Bft) 100,00 %
20.09.2016 20:06 12,0 C 92 % 1017,0 hPa 0,0 l/m 3,5 km/h (1 Bft) S-SW 209 0 min 0,000 mm 0,0 UV-I 0 W/m 10,7 C 12,0 C 4,8 km/h (1 Bft) 97,56 %
20.09.2016 20:08 12,0 C 92 % 1017,0 hPa 0,0 l/m 3,2 km/h (1 Bft) S-SW 209 0 min 0,000 mm 0,0 UV-I 0 W/m 10,7 C 12,0 C 4,8 km/h (1 Bft) 100,00 %
20.09.2016 20:10 12,0 C 92 % 1017,0 hPa 0,0 l/m 2,0 km/h (1 Bft) S-SW 209 0 min 0,000 mm 0,0 UV-I 0 W/m 10,7 C 12,0 C 4,8 km/h (1 Bft) 100,00 %
20.09.2016 20:12 12,0 C 92 % 1017,0 hPa 0,0 l/m 3,8 km/h (1 Bft) S-SW 202 0 min 0,000 mm 0,0 UV-I 0 W/m 10,7 C 12,0 C 4,8 km/h (1 Bft) 100,00 %
20.09.2016 20:14 12,1 C 92 % 1017,0 hPa 0,0 l/m 3,3 km/h (1 Bft) S 189 0 min 0,000 mm 0,0 UV-I 0 W/m 10,8 C 12,1 C 4,8 km/h (1 Bft) 100,00 %
20.09.2016 20:16 12,1 C 92 % 1017,0 hPa 0,0 l/m 1,9 km/h (1 Bft) S 189 0 min 0,000 mm 0,0 UV-I 0 W/m 10,8 C 12,1 C 4,8 km/h (1 Bft) 98,00 %
20.09.2016 20:18 12,1 C 92 % 1017,1 hPa 0,0 l/m 2,5 km/h (1 Bft) S 189 0 min 0,000 mm 0,0 UV-I 0 W/m 10,8 C 12,1 C 4,8 km/h (1 Bft) 100,00 %
20.09.2016 20:20 12,1 C 92 % 1017,1 hPa 0,0 l/m 3,6 km/h (1 Bft) S 181 0 min 0,000 mm 0,0 UV-I 0 W/m 10,8 C 12,1 C 4,8 km/h (1 Bft) 97,14 %
20.09.2016 20:22 12,1 C 92 % 1017,1 hPa 0,0 l/m 2,9 km/h (1 Bft) S 177 0 min 0,000 mm 0,0 UV-I 0 W/m 10,8 C 12,1 C 4,8 km/h (1 Bft) 100,00 %
20.09.2016 20:24 12,1 C 92 % 1017,1 hPa 0,0 l/m 3,8 km/h (1 Bft) S 178 0 min 0,000 mm 0,0 UV-I 0 W/m 10,8 C 12,1 C 4,8 km/h (1 Bft) 97,87 %
20.09.2016 20:26 12,2 C 92 % 1017,1 hPa 0,0 l/m 3,0 km/h (1 Bft) S 178 0 min 0,000 mm 0,0 UV-I 0 W/m 10,9 C 12,2 C 4,8 km/h (1 Bft) 100,00 %
20.09.2016 20:28 12,2 C 92 % 1017,1 hPa 0,0 l/m 2,9 km/h (1 Bft) S 186 0 min 0,000 mm 0,0 UV-I 0 W/m 10,9 C 12,2 C 4,8 km/h (1 Bft) 100,00 %
20.09.2016 20:30 12,1 C 92 % 1017,1 hPa 0,0 l/m 3,1 km/h (1 Bft) S 186 0 min 0,000 mm 0,0 UV-I 0 W/m 10,8 C 12,1 C 4,8 km/h (1 Bft) 100,00 %
20.09.2016 20:32 12,1 C 92 % 1017,1 hPa 0,0 l/m 3,2 km/h (1 Bft) S 186 0 min 0,000 mm 0,0 UV-I 0 W/m 10,8 C 12,1 C 4,8 km/h (1 Bft) 100,00 %
20.09.2016 20:34 12,1 C 92 % 1017,1 hPa 0,0 l/m 3,2 km/h (1 Bft) S 186 0 min 0,000 mm 0,0 UV-I 0 W/m 10,8 C 12,1 C 4,8 km/h (1 Bft) 100,00 %
20.09.2016 20:36 12,1 C 92 % 1017,1 hPa 0,0 l/m 4,1 km/h (1 Bft) S 186 0 min 0,000 mm 0,0 UV-I 0 W/m 10,8 C 12,1 C 6,4 km/h (2 Bft) 100,00 %
20.09.2016 20:38 12,1 C 92 % 1017,1 hPa 0,0 l/m 3,2 km/h (1 Bft) S 175 0 min 0,000 mm 0,0 UV-I 0 W/m 10,8 C 12,1 C 4,8 km/h (1 Bft) 100,00 %
20.09.2016 20:40 12,1 C 92 % 1017,1 hPa 0,0 l/m 2,9 km/h (1 Bft) S 175 0 min 0,000 mm 0,0 UV-I 0 W/m 10,8 C 12,1 C 4,8 km/h (1 Bft) 100,00 %
20.09.2016 20:42 12,1 C 92 % 1017,1 hPa 0,0 l/m 3,1 km/h (1 Bft) S 176 0 min 0,000 mm 0,0 UV-I 0 W/m 10,8 C 12,1 C 4,8 km/h (1 Bft) 100,00 %
20.09.2016 20:44 12,1 C 92 % 1017,2 hPa 0,0 l/m 3,3 km/h (1 Bft) S 175 0 min 0,000 mm 0,0 UV-I 0 W/m 10,8 C 12,1 C 6,4 km/h (2 Bft) 100,00 %
20.09.2016 20:46 12,1 C 92 % 1017,2 hPa 0,0 l/m 3,5 km/h (1 Bft) S 177 0 min 0,000 mm 0,0 UV-I 0 W/m 10,8 C 12,1 C 6,4 km/h (2 Bft) 98,11 %
20.09.2016 20:48 12,1 C 92 % 1017,2 hPa 0,0 l/m 4,6 km/h (1 Bft) S 171 0 min 0,000 mm 0,0 UV-I 0 W/m 10,8 C 12,1 C 8,0 km/h (2 Bft) 97,22 %
20.09.2016 20:50 12,1 C 92 % 1017,1 hPa 0,0 l/m 3,8 km/h (1 Bft) S-SW 195 0 min 0,000 mm 0,0 UV-I 0 W/m 10,8 C 12,1 C 6,4 km/h (2 Bft) 100,00 %
20.09.2016 20:52 12,1 C 92 % 1017,2 hPa 0,0 l/m 3,6 km/h (1 Bft) S 178 0 min 0,000 mm 0,0 UV-I 0 W/m 10,8 C 12,1 C 4,8 km/h (1 Bft) 100,00 %
20.09.2016 20:54 12,1 C 92 % 1017,2 hPa 0,0 l/m 3,4 km/h (1 Bft) S 178 0 min 0,000 mm 0,0 UV-I 0 W/m 10,8 C 12,1 C 4,8 km/h (1 Bft) 100,00 %
20.09.2016 20:56 12,1 C 92 % 1017,2 hPa 0,0 l/m 2,5 km/h (1 Bft) S 178 0 min 0,000 mm 0,0 UV-I 0 W/m 10,8 C 12,1 C 4,8 km/h (1 Bft) 100,00 %
20.09.2016 20:58 12,1 C 92 % 1017,2 hPa 0,0 l/m 1,6 km/h (1 Bft) S 178 0 min 0,000 mm 0,0 UV-I 0 W/m 10,8 C 12,1 C 3,2 km/h (1 Bft) 97,87 %
20.09.2016 21:00 12,1 C 92 % 1017,2 hPa 0,0 l/m 1,1 km/h (1 Bft) S 178 0 min 0,000 mm 0,0 UV-I 0 W/m 10,8 C 12,1 C 1,6 km/h (1 Bft) 100,00 %
20.09.2016 21:02 12,1 C 92 % 1017,1 hPa 0,0 l/m 2,3 km/h (1 Bft) S 178 0 min 0,000 mm 0,0 UV-I 0 W/m 10,8 C 12,1 C 4,8 km/h (1 Bft) 100,00 %
20.09.2016 21:04 12,0 C 92 % 1017,1 hPa 0,0 l/m 3,0 km/h (1 Bft) S 178 0 min 0,000 mm 0,0 UV-I 0 W/m 10,7 C 12,0 C 4,8 km/h (1 Bft) 100,00 %
20.09.2016 21:06 12,0 C 93 % 1017,1 hPa 0,0 l/m 2,6 km/h (1 Bft) S 178 0 min 0,000 mm 0,0 UV-I 0 W/m 10,9 C 12,0 C 3,2 km/h (1 Bft) 100,00 %
20.09.2016 21:08 12,0 C 93 % 1017,2 hPa 0,0 l/m 2,1 km/h (1 Bft) S 178 0 min 0,000 mm 0,0 UV-I 0 W/m 10,9 C 12,0 C 3,2 km/h (1 Bft) 100,00 %
20.09.2016 21:10 12,0 C 93 % 1017,2 hPa 0,0 l/m 1,3 km/h (1 Bft) S 178 0 min 0,000 mm 0,0 UV-I 0 W/m 10,9 C 12,0 C 3,2 km/h (1 Bft) 97,87 %
20.09.2016 21:12 12,0 C 93 % 1017,2 hPa 0,0 l/m 1,3 km/h (1 Bft) S 178 0 min 0,000 mm 0,0 UV-I 0 W/m 10,9 C 12,0 C 3,2 km/h (1 Bft) 100,00 %
20.09.2016 21:14 11,9 C 93 % 1017,3 hPa 0,0 l/m 0,7 km/h (0 Bft) S 178 0 min 0,000 mm 0,0 UV-I 0 W/m 10,8 C 11,9 C 1,6 km/h (1 Bft) 97,37 %
20.09.2016 21:16 12,0 C 93 % 1017,3 hPa 0,0 l/m 0,2 km/h (0 Bft) S 178 0 min 0,000 mm 0,0 UV-I 0 W/m 10,9 C 12,0 C 3,2 km/h (1 Bft) 97,87 %
20.09.2016 21:18 12,0 C 93 % 1017,3 hPa 0,0 l/m 2,5 km/h (1 Bft) NO 43 0 min 0,000 mm 0,0 UV-I 0 W/m 10,9 C 12,0 C 4,8 km/h (1 Bft) 100,00 %
20.09.2016 21:20 11,9 C 94 % 1017,4 hPa 0,0 l/m 2,1 km/h (1 Bft) N-NO 29 0 min 0,000 mm 0,0 UV-I 0 W/m 11,0 C 11,9 C 4,8 km/h (1 Bft) 100,00 %
20.09.2016 21:22 11,9 C 94 % 1017,3 hPa 0,0 l/m 2,7 km/h (1 Bft) N-NO 13 0 min 0,000 mm 0,0 UV-I 0 W/m 11,0 C 11,9 C 6,4 km/h (2 Bft) 97,87 %
20.09.2016 21:24 11,9 C 94 % 1017,4 hPa 0,0 l/m 3,3 km/h (1 Bft) NO 34 0 min 0,000 mm 0,0 UV-I 0 W/m 11,0 C 11,9 C 6,4 km/h (2 Bft) 100,00 %
20.09.2016 21:26 11,9 C 93 % 1017,4 hPa 0,0 l/m 2,8 km/h (1 Bft) NO 34 0 min 0,000 mm 0,0 UV-I 0 W/m 10,8 C 11,9 C 4,8 km/h (1 Bft) 100,00 %
20.09.2016 21:28 11,9 C 93 % 1017,3 hPa 0,0 l/m 1,3 km/h (1 Bft) NO 34 0 min 0,000 mm 0,0 UV-I 0 W/m 10,8 C 11,9 C 3,2 km/h (1 Bft) 100,00 %
20.09.2016 21:30 11,9 C 93 % 1017,4 hPa 0,0 l/m 1,2 km/h (1 Bft) NO 34 0 min 0,000 mm 0,0 UV-I 0 W/m 10,8 C 11,9 C 1,6 km/h (1 Bft) 100,00 %
20.09.2016 21:32 11,9 C 93 % 1017,4 hPa 0,0 l/m 1,9 km/h (1 Bft) NO 34 0 min 0,000 mm 0,0 UV-I 0 W/m 10,8 C 11,9 C 3,2 km/h (1 Bft) 98,00 %
20.09.2016 21:34 11,9 C 93 % 1017,4 hPa 0,0 l/m 1,1 km/h (1 Bft) O-NO 71 0 min 0,000 mm 0,0 UV-I 0 W/m 10,8 C 11,9 C 3,2 km/h (1 Bft) 97,22 %
20.09.2016 21:36 11,9 C 93 % 1017,4 hPa 0,0 l/m 1,2 km/h (1 Bft) SO 128 0 min 0,000 mm 0,0 UV-I 0 W/m 10,8 C 11,9 C 3,2 km/h (1 Bft) 96,00 %
20.09.2016 21:38 12,0 C 92 % 1017,3 hPa 0,0 l/m 1,5 km/h (1 Bft) SO 128 0 min 0,000 mm 0,0 UV-I 0 W/m 10,7 C 12,0 C 3,2 km/h (1 Bft) 98,00 %
20.09.2016 21:40 12,1 C 92 % 1017,3 hPa 0,0 l/m 0,5 km/h (0 Bft) SO 128 0 min 0,000 mm 0,0 UV-I 0 W/m 10,8 C 12,1 C 1,6 km/h (1 Bft) 97,37 %
20.09.2016 21:42 12,1 C 93 % 1017,3 hPa 0,0 l/m 1,4 km/h (1 Bft) SO 128 0 min 0,000 mm 0,0 UV-I 0 W/m 11,0 C 12,1 C 4,8 km/h (1 Bft) 98,39 %
20.09.2016 21:44 12,1 C 93 % 1017,3 hPa 0,0 l/m 1,2 km/h (1 Bft) SO 128 0 min 0,000 mm 0,0 UV-I 0 W/m 11,0 C 12,1 C 4,8 km/h (1 Bft) 94,74 %
20.09.2016 21:46 12,1 C 93 % 1017,3 hPa 0,0 l/m 1,6 km/h (1 Bft) SO 128 0 min 0,000 mm 0,0 UV-I 0 W/m 11,0 C 12,1 C 3,2 km/h (1 Bft) 98,00 %
20.09.2016 21:48 12,0 C 93 % 1017,3 hPa 0,0 l/m 1,5 km/h (1 Bft) SO 128 0 min 0,000 mm 0,0 UV-I 0 W/m 10,9 C 12,0 C 3,2 km/h (1 Bft) 96,15 %
20.09.2016 21:50 12,0 C 94 % 1017,3 hPa 0,0 l/m 1,2 km/h (1 Bft) SO 128 0 min 0,000 mm 0,0 UV-I 0 W/m 11,1 C 12,0 C 3,2 km/h (1 Bft) 98,46 %
20.09.2016 21:52 11,9 C 94 % 1017,3 hPa 0,0 l/m 0,5 km/h (0 Bft) SO 128 0 min 0,000 mm 0,0 UV-I 0 W/m 11,0 C 11,9 C 1,6 km/h (1 Bft) 97,87 %
20.09.2016 21:54 11,9 C 94 % 1017,3 hPa 0,0 l/m 0,6 km/h (0 Bft) SO 128 0 min 0,000 mm 0,0 UV-I 0 W/m 11,0 C 11,9 C 1,6 km/h (1 Bft) 96,00 %
20.09.2016 21:56 11,9 C 94 % 1017,3 hPa 0,0 l/m 0,1 km/h (0 Bft) SO 128 0 min 0,000 mm 0,0 UV-I 0 W/m 11,0 C 11,9 C 1,6 km/h (1 Bft) 97,87 %
20.09.2016 21:58 11,9 C 94 % 1017,4 hPa 0,0 l/m 0,0 km/h (0 Bft) SO 128 0 min 0,000 mm 0,0 UV-I 0 W/m 11,0 C 11,9 C 1,6 km/h (1 Bft) 97,87 %
20.09.2016 22:00 11,9 C 94 % 1017,4 hPa 0,0 l/m 0,3 km/h (0 Bft) SO 128 0 min 0,000 mm 0,0 UV-I 0 W/m 11,0 C 11,9 C 1,6 km/h (1 Bft) 97,56 %
20.09.2016 22:02 11,9 C 94 % 1017,4 hPa 0,0 l/m 0,8 km/h (0 Bft) SO 128 0 min 0,000 mm 0,0 UV-I 0 W/m 11,0 C 11,9 C 1,6 km/h (1 Bft) 98,00 %
20.09.2016 22:04 11,8 C 94 % 1017,4 hPa 0,0 l/m 1,1 km/h (1 Bft) SO 128 0 min 0,000 mm 0,0 UV-I 0 W/m 10,9 C 11,8 C 3,2 km/h (1 Bft) 96,00 %
20.09.2016 22:06 11,9 C 94 % 1017,4 hPa 0,0 l/m 0,8 km/h (0 Bft) SO 128 0 min 0,000 mm 0,0 UV-I 0 W/m 11,0 C 11,9 C 3,2 km/h (1 Bft) 97,87 %
20.09.2016 22:08 11,9 C 94 % 1017,5 hPa 0,0 l/m 0,7 km/h (0 Bft) SO 128 0 min 0,000 mm 0,0 UV-I 0 W/m 11,0 C 11,9 C 1,6 km/h (1 Bft) 100,00 %
20.09.2016 22:10 11,9 C 94 % 1017,4 hPa 0,0 l/m 0,5 km/h (0 Bft) SO 128 0 min 0,000 mm 0,0 UV-I 0 W/m 11,0 C 11,9 C 1,6 km/h (1 Bft) 95,74 %
20.09.2016 22:12 11,8 C 94 % 1017,5 hPa 0,0 l/m 0,1 km/h (0 Bft) SO 128 0 min 0,000 mm 0,0 UV-I 0 W/m 10,9 C 11,8 C 1,6 km/h (1 Bft) 100,00 %
20.09.2016 22:14 11,8 C 94 % 1017,5 hPa 0,0 l/m 0,0 km/h (0 Bft) SO 128 0 min 0,000 mm 0,0 UV-I 0 W/m 10,9 C 11,8 C 0,0 km/h (0 Bft) 100,00 %
20.09.2016 22:16 11,8 C 94 % 1017,5 hPa 0,0 l/m 0,0 km/h (0 Bft) SO 128 0 min 0,000 mm 0,0 UV-I 0 W/m 10,9 C 11,8 C 0,0 km/h (0 Bft) 100,00 %
20.09.2016 22:18 11,8 C 94 % 1017,5 hPa 0,0 l/m 0,1 km/h (0 Bft) SO 128 0 min 0,000 mm 0,0 UV-I 0 W/m 10,9 C 11,8 C 1,6 km/h (1 Bft) 100,00 %
20.09.2016 22:20 11,8 C 94 % 1017,4 hPa 0,0 l/m 0,1 km/h (0 Bft) SO 128 0 min 0,000 mm 0,0 UV-I 0 W/m 10,9 C 11,8 C 1,6 km/h (1 Bft) 100,00 %
20.09.2016 22:22 11,8 C 94 % 1017,4 hPa 0,0 l/m 0,2 km/h (0 Bft) SO 128 0 min 0,000 mm 0,0 UV-I 0 W/m 10,9 C 11,8 C 1,6 km/h (1 Bft) 100,00 %
20.09.2016 22:24 11,8 C 94 % 1017,5 hPa 0,0 l/m 0,2 km/h (0 Bft) SO 128 0 min 0,000 mm 0,0 UV-I 0 W/m 10,9 C 11,8 C 1,6 km/h (1 Bft) 97,87 %
20.09.2016 22:26 11,8 C 95 % 1017,5 hPa 0,0 l/m 2,1 km/h (1 Bft) SO 128 0 min 0,000 mm 0,0 UV-I 0 W/m 11,0 C 11,8 C 3,2 km/h (1 Bft) 98,00 %
20.09.2016 22:28 11,8 C 95 % 1017,5 hPa 0,0 l/m 2,4 km/h (1 Bft) SO 128 0 min 0,000 mm 0,0 UV-I 0 W/m 11,0 C 11,8 C 4,8 km/h (1 Bft) 100,00 %
20.09.2016 22:30 11,8 C 95 % 1017,5 hPa 0,0 l/m 3,0 km/h (1 Bft) S-SO 150 0 min 0,000 mm 0,0 UV-I 0 W/m 11,0 C 11,8 C 4,8 km/h (1 Bft) 96,23 %
20.09.2016 22:32 11,8 C 95 % 1017,5 hPa 0,0 l/m 2,5 km/h (1 Bft) S-SO 150 0 min 0,000 mm 0,0 UV-I 0 W/m 11,0 C 11,8 C 4,8 km/h (1 Bft) 100,00 %
20.09.2016 22:34 11,8 C 95 % 1017,5 hPa 0,0 l/m 1,8 km/h (1 Bft) S-SO 150 0 min 0,000 mm 0,0 UV-I 0 W/m 11,0 C 11,8 C 3,2 km/h (1 Bft) 100,00 %
20.09.2016 22:36 11,7 C 94 % 1017,5 hPa 0,0 l/m 0,3 km/h (0 Bft) S-SO 150 0 min 0,000 mm 0,0 UV-I 0 W/m 10,8 C 11,7 C 1,6 km/h (1 Bft) 100,00 %
20.09.2016 22:38 11,7 C 94 % 1017,6 hPa 0,0 l/m 0,8 km/h (0 Bft) S-SO 150 0 min 0,000 mm 0,0 UV-I 0 W/m 10,8 C 11,7 C 1,6 km/h (1 Bft) 100,00 %
20.09.2016 22:40 11,7 C 94 % 1017,5 hPa 0,0 l/m 2,3 km/h (1 Bft) S-SO 150 0 min 0,000 mm 0,0 UV-I 0 W/m 10,8 C 11,7 C 3,2 km/h (1 Bft) 100,00 %
20.09.2016 22:42 11,7 C 94 % 1017,5 hPa 0,0 l/m 2,0 km/h (1 Bft) S-SO 150 0 min 0,000 mm 0,0 UV-I 0 W/m 10,8 C 11,7 C 3,2 km/h (1 Bft) 100,00 %
20.09.2016 22:44 11,7 C 94 % 1017,5 hPa 0,0 l/m 1,0 km/h (0 Bft) S-SO 150 0 min 0,000 mm 0,0 UV-I 0 W/m 10,8 C 11,7 C 3,2 km/h (1 Bft) 100,00 %
20.09.2016 22:46 11,7 C 94 % 1017,5 hPa 0,0 l/m 0,1 km/h (0 Bft) S-SO 150 0 min 0,000 mm 0,0 UV-I 0 W/m 10,8 C 11,7 C 1,6 km/h (1 Bft) 95,74 %
20.09.2016 22:48 11,6 C 94 % 1017,5 hPa 0,0 l/m 0,3 km/h (0 Bft) S-SO 150 0 min 0,000 mm 0,0 UV-I 0 W/m 10,7 C 11,6 C 1,6 km/h (1 Bft) 98,00 %
20.09.2016 22:50 11,6 C 94 % 1017,5 hPa 0,0 l/m 1,9 km/h (1 Bft) S-SO 150 0 min 0,000 mm 0,0 UV-I 0 W/m 10,7 C 11,6 C 3,2 km/h (1 Bft) 100,00 %
20.09.2016 22:52 11,6 C 94 % 1017,6 hPa 0,0 l/m 0,0 km/h (0 Bft) S-SO 150 0 min 0,000 mm 0,0 UV-I 0 W/m 10,7 C 11,6 C 1,6 km/h (1 Bft) 100,00 %
20.09.2016 22:54 11,6 C 94 % 1017,6 hPa 0,0 l/m 0,4 km/h (0 Bft) S-SO 150 0 min 0,000 mm 0,0 UV-I 0 W/m 10,7 C 11,6 C 1,6 km/h (1 Bft) 100,00 %
20.09.2016 22:56 11,6 C 94 % 1017,6 hPa 0,0 l/m 1,5 km/h (1 Bft) S-SO 150 0 min 0,000 mm 0,0 UV-I 0 W/m 10,7 C 11,6 C 3,2 km/h (1 Bft) 98,00 %
20.09.2016 22:58 11,6 C 94 % 1017,6 hPa 0,0 l/m 1,0 km/h (0 Bft) S-SO 150 0 min 0,000 mm 0,0 UV-I 0 W/m 10,7 C 11,6 C 1,6 km/h (1 Bft) 100,00 %
20.09.2016 23:00 11,6 C 94 % 1017,6 hPa 0,0 l/m 0,1 km/h (0 Bft) S-SO 150 0 min 0,000 mm 0,0 UV-I 0 W/m 10,7 C 11,6 C 1,6 km/h (1 Bft) 100,00 %
20.09.2016 23:02 11,6 C 94 % 1017,6 hPa 0,0 l/m 1,5 km/h (1 Bft) S-SO 150 0 min 0,000 mm 0,0 UV-I 0 W/m 10,7 C 11,6 C 3,2 km/h (1 Bft) 100,00 %
20.09.2016 23:04 11,6 C 94 % 1017,6 hPa 0,0 l/m 2,5 km/h (1 Bft) S-SO 150 0 min 0,000 mm 0,0 UV-I 0 W/m 10,7 C 11,6 C 3,2 km/h (1 Bft) 100,00 %
20.09.2016 23:06 11,6 C 94 % 1017,6 hPa 0,0 l/m 3,1 km/h (1 Bft) S-SO 150 0 min 0,000 mm 0,0 UV-I 0 W/m 10,7 C 11,6 C 3,2 km/h (1 Bft) 100,00 %
20.09.2016 23:08 11,6 C 94 % 1017,6 hPa 0,0 l/m 2,7 km/h (1 Bft) S-SO 150 0 min 0,000 mm 0,0 UV-I 0 W/m 10,7 C 11,6 C 3,2 km/h (1 Bft) 100,00 %
20.09.2016 23:10 11,6 C 94 % 1017,6 hPa 0,0 l/m 2,3 km/h (1 Bft) S-SO 150 0 min 0,000 mm 0,0 UV-I 0 W/m 10,7 C 11,6 C 4,8 km/h (1 Bft) 100,00 %
20.09.2016 23:12 11,6 C 94 % 1017,6 hPa 0,0 l/m 0,9 km/h (0 Bft) S-SO 150 0 min 0,000 mm 0,0 UV-I 0 W/m 10,7 C 11,6 C 3,2 km/h (1 Bft) 100,00 %
20.09.2016 23:14 11,5 C 94 % 1017,7 hPa 0,0 l/m 0,4 km/h (0 Bft) S-SO 150 0 min 0,000 mm 0,0 UV-I 0 W/m 10,6 C 11,5 C 3,2 km/h (1 Bft) 100,00 %
20.09.2016 23:16 11,5 C 94 % 1017,6 hPa 0,0 l/m 0,3 km/h (0 Bft) S-SO 150 0 min 0,000 mm 0,0 UV-I 0 W/m 10,6 C 11,5 C 1,6 km/h (1 Bft) 100,00 %
20.09.2016 23:18 11,5 C 94 % 1017,6 hPa 0,0 l/m 0,0 km/h (0 Bft) S-SO 150 0 min 0,000 mm 0,0 UV-I 0 W/m 10,6 C 11,5 C 0,0 km/h (0 Bft) 100,00 %
20.09.2016 23:20 11,4 C 94 % 1017,6 hPa 0,0 l/m 0,0 km/h (0 Bft) S-SO 150 0 min 0,000 mm 0,0 UV-I 0 W/m 10,5 C 11,4 C 0,0 km/h (0 Bft) 100,00 %
20.09.2016 23:22 11,4 C 94 % 1017,6 hPa 0,0 l/m 0,0 km/h (0 Bft) S-SO 150 0 min 0,000 mm 0,0 UV-I 0 W/m 10,5 C 11,4 C 0,0 km/h (0 Bft) 100,00 %
20.09.2016 23:24 11,4 C 94 % 1017,7 hPa 0,0 l/m 0,0 km/h (0 Bft) S-SO 150 0 min 0,000 mm 0,0 UV-I 0 W/m 10,5 C 11,4 C 0,0 km/h (0 Bft) 100,00 %
20.09.2016 23:26 11,4 C 94 % 1017,7 hPa 0,0 l/m 0,6 km/h (0 Bft) S-SO 150 0 min 0,000 mm 0,0 UV-I 0 W/m 10,5 C 11,4 C 3,2 km/h (1 Bft) 97,22 %
20.09.2016 23:28 11,4 C 94 % 1017,7 hPa 0,0 l/m 2,4 km/h (1 Bft) S-SO 150 0 min 0,000 mm 0,0 UV-I 0 W/m 10,5 C 11,4 C 3,2 km/h (1 Bft) 100,00 %
20.09.2016 23:30 11,3 C 94 % 1017,7 hPa 0,0 l/m 1,8 km/h (1 Bft) S-SO 150 0 min 0,000 mm 0,0 UV-I 0 W/m 10,4 C 11,3 C 3,2 km/h (1 Bft) 98,00 %
20.09.2016 23:32 11,3 C 94 % 1017,7 hPa 0,0 l/m 0,0 km/h (0 Bft) S-SO 150 0 min 0,000 mm 0,0 UV-I 0 W/m 10,4 C 11,3 C 0,0 km/h (0 Bft) 97,44 %
20.09.2016 23:34 11,3 C 94 % 1017,7 hPa 0,0 l/m 0,0 km/h (0 Bft) S-SO 150 0 min 0,000 mm 0,0 UV-I 0 W/m 10,4 C 11,3 C 0,0 km/h (0 Bft) 98,00 %
20.09.2016 23:36 11,3 C 94 % 1017,7 hPa 0,0 l/m 0,5 km/h (0 Bft) S-SO 150 0 min 0,000 mm 0,0 UV-I 0 W/m 10,4 C 11,3 C 1,6 km/h (1 Bft) 96,00 %
20.09.2016 23:38 11,3 C 94 % 1017,7 hPa 0,0 l/m 2,1 km/h (1 Bft) S-SO 150 0 min 0,000 mm 0,0 UV-I 0 W/m 10,4 C 11,3 C 3,2 km/h (1 Bft) 97,87 %
20.09.2016 23:40 11,2 C 94 % 1017,7 hPa 0,0 l/m 1,9 km/h (1 Bft) S-SO 150 0 min 0,000 mm 0,0 UV-I 0 W/m 10,3 C 11,2 C 3,2 km/h (1 Bft) 97,37 %
20.09.2016 23:42 11,2 C 94 % 1017,7 hPa 0,0 l/m 1,7 km/h (1 Bft) S-SO 150 0 min 0,000 mm 0,0 UV-I 0 W/m 10,3 C 11,2 C 3,2 km/h (1 Bft) 98,11 %
20.09.2016 23:44 11,1 C 94 % 1017,7 hPa 0,0 l/m 2,0 km/h (1 Bft) S-SO 150 0 min 0,000 mm 0,0 UV-I 0 W/m 10,2 C 11,1 C 3,2 km/h (1 Bft) 97,87 %
20.09.2016 23:46 11,1 C 94 % 1017,8 hPa 0,0 l/m 1,3 km/h (1 Bft) S-SO 150 0 min 0,000 mm 0,0 UV-I 0 W/m 10,2 C 11,1 C 1,6 km/h (1 Bft) 98,00 %
20.09.2016 23:48 11,0 C 95 % 1017,8 hPa 0,0 l/m 0,4 km/h (0 Bft) S-SO 150 0 min 0,000 mm 0,0 UV-I 0 W/m 10,2 C 11,0 C 1,6 km/h (1 Bft) 97,87 %
20.09.2016 23:50 11,0 C 95 % 1017,8 hPa 0,0 l/m 0,0 km/h (0 Bft) S-SO 150 0 min 0,000 mm 0,0 UV-I 0 W/m 10,2 C 11,0 C 0,0 km/h (0 Bft) 97,37 %
20.09.2016 23:52 11,0 C 95 % 1017,7 hPa 0,0 l/m 0,0 km/h (0 Bft) S-SO 150 0 min 0,000 mm 0,0 UV-I 0 W/m 10,2 C 11,0 C 0,0 km/h (0 Bft) 94,74 %
20.09.2016 23:54 11,0 C 95 % 1017,7 hPa 0,0 l/m 1,2 km/h (1 Bft) S-SO 150 0 min 0,000 mm 0,0 UV-I 0 W/m 10,2 C 11,0 C 3,2 km/h (1 Bft) 96,92 %
20.09.2016 23:56 10,9 C 95 % 1017,8 hPa 0,0 l/m 1,3 km/h (1 Bft) S-SO 150 0 min 0,000 mm 0,0 UV-I 0 W/m 10,1 C 10,9 C 1,6 km/h (1 Bft) 97,87 %
20.09.2016 23:58 10,9 C 95 % 1017,8 hPa 0,0 l/m 1,4 km/h (1 Bft) S-SO 150 0 min 0,000 mm 0,0 UV-I 0 W/m 10,1 C 10,9 C 1,6 km/h (1 Bft) 97,37 %
_ Min-Zeit 07:56 17:46 00:02 - 02:56 - - - - - - 17:46 00:42 02:56 03:44
Minimum _ 10,8 C 75 % 1014,4 hPa - 0,0 km/h (0 Bft) - - - - - - 9,7 C 9,2 C 0,0 km/h (0 Bft) 91,49 %
_ Max-Zeit 17:16 02:14 23:46 00:02 00:42 - - 16:48 13:00 12:48 12:54 00:00 17:20 00:40 00:10
Maximum _ 14,3 C 98 % 1017,8 hPa 0,2 l/m 12,7 km/h
W-SW (3 Bft)
- - 2 min 0,127 mm 1,9 UV-I 302 W/m 12,2 C 14,3 C 20,9 km/h
W (4 Bft)
100,00 %
Durchschnitt _ 12,4 C 92 % 1016,0 hPa #8,2 l/m 3,8 km/h (1 Bft) S - #54 min. #0,940 mm 1,1 UV-I 138 W/m 11,1 C 12,2 C 6,7 km/h (2 Bft) 98,58 %